GFSGBSN_700_temp_000.txt.gz
Temp
4 4 4 4 4 4 4 4 4 4 4 5 5 5 5 5 5 5 5 4 4 5 5 5 5 5 5 5 6 6 6 6 7 7 7 8 8 8 8 9 8 8 8 8 7 7 7
3 3 3 3 3 3 3 4 4 4 4 4 5 5 4 4 5 4 4 4 4 5 5 5 5 5 5 5 6 6 6 6 6 7 7 7 8 8 9 8 8 8 8 8 8 8 8
3 2 3 3 3 3 3 3 3 4 4 4 4 4 4 4 4 4 4 4 4 4 5 5 5 5 5 6 6 6 6 6 6 7 7 7 8 8 8 8 8 8 8 8 8 8 8
2 2 2 2 2 2 3 3 3 3 4 4 4 4 4 4 4 4 4 4 4 4 5 5 5 5 5 6 6 6 6 6 7 7 7 7 8 8 8 8 8 8 8 9 7 7 8
2 2 2 2 2 2 3 3 3 3 3 3 3 4 4 4 4 4 4 4 4 5 5 5 6 6 6 6 7 7 7 7 7 7 7 8 8 8 8 8 8 8 9 8 7 7 7
1 2 2 2 2 2 2 2 3 3 3 3 3 3 4 4 4 4 4 4 4 4 5 5 5 6 6 7 7 8 7 7 7 7 7 7 8 8 8 9 10 9 8 8 7 7 7
1 1 2 2 2 2 2 2 2 2 3 3 3 3 4 4 4 4 4 4 4 4 5 5 6 6 7 7 8 8 8 7 7 7 7 8 8 7 7 8 8 7 7 7 6 7 7
1 1 2 2 2 2 2 2 2 2 2 3 3 3 4 4 4 4 4 4 5 5 5 5 6 6 7 7 7 8 8 7 7 7 8 7 6 7 7 7 7 7 6 6 6 6 6
1 1 1 2 2 2 2 2 2 2 2 2 3 3 4 4 4 4 5 5 5 6 4 5 5 6 6 6 7 7 7 7 7 7 7 7 6 6 6 6 6 6 6 5 5 5 6
1 1 1 2 2 2 2 2 2 2 3 3 3 3 4 4 4 4 5 5 5 6 5 5 5 6 6 6 7 7 7 7 7 6 6 6 5 5 5 5 5 6 5 5 5 5 9
1 1 1 1 2 2 2 2 2 2 3 3 3 3 4 4 4 5 5 5 5 6 7 5 5 5 6 6 6 6 6 6 7 6 6 5 5 5 4 5 5 4 5 5 5 5 6
1 1 1 1 2 2 2 2 2 3 3 3 3 4 4 4 4 5 5 5 5 5 5 4 4 4 5 6 6 6 6 6 6 5 5 5 5 5 4 5 5 5 5 5 5 5 7
1 1 1 2 2 2 2 2 3 3 3 3 3 4 4 4 4 4 5 5 5 6 5 4 4 4 5 5 5 5 5 6 5 5 4 4 4 4 4 4 4 4 5 7 6 7 7
1 1 1 2 2 2 2 3 3 3 3 3 3 4 4 4 4 4 4 4 5 4 4 4 4 4 5 5 4 5 5 4 5 5 4 5 5 3 4 4 4 4 3 4 5 6 6
1 1 1 1 2 2 3 3 3 3 3 3 3 4 4 4 4 4 4 4 4 4 4 4 4 4 4 4 4 4 4 4 4 4 4 3 4 3 3 3 4 3 3 3 3 2 2
1 1 1 1 2 2 3 3 3 4 4 4 4 4 4 4 4 4 4 5 4 5 4 4 4 4 4 4 4 3 3 3 3 4 4 3 3 3 3 3 3 3 3 3 3 3 4
1 1 1 1 2 2 3 3 3 3 4 4 4 4 4 4 4 4 4 5 4 4 4 4 4 4 4 4 4 4 3 3 3 3 3 3 3 3 3 2 2 2 2 2 2 2 3
1 1 1 1 1 2 2 3 3 3 3 4 4 3 4 4 4 4 4 5 4 4 4 4 4 4 4 4 3 3 3 3 3 3 3 3 3 2 2 2 2 2 1 1 2 1 0
1 1 1 1 1 2 2 2 3 3 3 3 3 4 4 4 4 4 4 4 4 4 4 4 4 4 4 4 3 3 3 3 3 2 2 2 2 3 2 1 1 1 0 0 -0 -1 -0
0 1 1 1 1 2 2 2 2 3 3 3 3 3 3 4 4 4 4 4 4 4 4 4 4 4 4 4 4 3 3 3 3 3 3 3 2 2 3 2 0 0 0 -0 -1 -1 0
0 1 1 1 1 2 2 2 2 2 2 3 3 3 4 3 4 4 4 4 4 4 4 4 3 4 4 4 3 3 3 3 3 3 3 2 2 1 1 2 1 -1 -0 -0 -1 -1 -1
0 1 1 1 1 1 2 2 2 2 2 2 3 3 3 4 4 3 3 3 4 4 4 3 4 4 4 3 3 3 3 3 2 2 1 1 1 1 1 2 1 0 1 -0 0 -1 -1
0 0 1 1 1 1 2 2 2 2 2 2 3 3 3 3 3 3 3 3 3 3 3 3 3 3 3 3 3 3 3 3 2 1 1 1 0 -0 -0 1 0 1 2 0 -0 -1 -1
-0 0 0 1 1 1 1 2 2 2 2 2 3 3 3 3 3 3 3 3 3 3 3 3 3 2 2 2 2 2 2 2 2 1 1 0 -0 -2 -1 -1 -0 1 0 -0 -0 -0 -1
-0 -0 0 1 1 1 1 1 2 2 2 2 3 2 2 3 3 2 2 2 2 2 2 2 2 2 2 1 2 2 2 1 1 1 0 0 -1 -2 -3 -3 -1 0 -0 -1 -2 -1 -2
-0 -0 0 0 0 1 1 1 1 1 1 2 2 2 2 2 2 2 2 2 2 2 2 1 1 1 1 1 1 1 1 1 -0 0 -0 -1 -1 -2 -4 -4 -2 -1 -1 -2 -1 -2 -2
-1 -0 -0 0 0 0 1 1 1 1 1 1 1 1 2 2 2 2 2 2 2 1 1 1 1 0 0 0 0 0 -0 0 -1 -0 -1 -1 -2 -3 -4 -4 -3 -3 -2 -3 -3 -3 -3
-1 -1 -0 -0 -0 0 0 1 1 1 1 1 1 1 1 1 1 1 1 1 1 1 1 1 -0 0 -0 -0 -0 -0 -1 -1 -1 -1 -1 -2 -3 -3 -3 -4 -4 -2 -3 -3 -4 -4 -4
-1 -1 -1 -0 -0 -0 -0 0 0 0 1 1 1 1 1 1 1 1 1 1 1 1 0 0 0 0 -0 -0 -1 -1 -1 -2 -2 -3 -2 -3 -2 -3 -3 -2 -3 -3 -3 -4 -4 -5 -5

GFSGBSN_700_temp_003.txt.gz
Temp
4 4 4 4 4 4 4 4 4 5 5 5 5 5 5 5 5 5 5 5 5 5 4 4 5 5 5 5 6 6 6 7 7 8 8 8 9 9 10 10 9 9 9 8 8 8 8
4 4 4 4 4 3 4 4 4 4 5 5 5 5 5 5 5 5 5 5 4 4 4 5 5 5 5 6 6 6 6 7 7 7 8 8 9 9 9 10 10 9 9 8 8 8 8
4 4 4 3 3 3 3 3 4 4 4 4 4 5 5 5 5 5 4 4 4 4 5 5 5 5 5 5 6 6 7 7 7 7 7 7 8 9 9 8 8 8 9 9 8 8 8
3 3 3 3 3 3 3 3 3 3 4 4 4 5 5 5 4 4 4 4 4 5 5 5 5 5 5 6 6 7 7 7 7 7 7 8 8 8 9 8 8 9 10 10 9 8 8
3 3 3 2 2 2 2 2 3 3 4 4 4 4 4 4 4 4 4 4 5 5 6 6 6 5 6 7 7 7 7 6 7 7 7 8 8 8 8 9 9 10 11 11 9 8 8
2 2 2 2 2 2 2 2 2 3 3 4 4 4 4 4 4 4 4 4 5 5 6 6 6 5 6 6 8 8 7 7 6 7 7 8 8 9 10 10 12 12 11 10 11 9 9
2 2 2 2 2 2 2 2 2 2 3 3 3 3 4 4 4 4 4 5 5 5 4 5 5 5 6 7 8 8 8 7 7 7 8 8 10 10 8 8 8 9 9 10 10 8 8
2 2 2 2 2 2 2 2 2 2 2 3 3 3 4 4 4 4 4 4 5 5 4 5 6 6 7 7 5 6 6 6 7 9 8 9 8 7 7 7 7 8 9 10 8 7 8
1 2 2 2 2 2 2 2 2 2 2 3 3 3 4 4 4 4 4 4 5 5 5 5 5 5 7 5 6 7 6 7 8 8 9 9 7 7 7 7 7 8 8 7 7 8 8
1 1 2 2 2 2 2 2 2 2 2 3 3 3 4 4 4 4 4 5 5 6 7 5 5 6 6 6 6 7 7 7 7 8 7 6 7 6 7 7 6 8 6 5 6 7 10
1 1 1 1 2 2 2 2 2 2 2 3 3 3 3 4 3 4 5 5 6 6 9 5 5 6 6 6 6 6 7 6 7 6 7 6 6 6 6 5 6 6 6 5 6 7 9
1 1 1 1 2 2 2 2 2 2 2 3 3 3 3 4 4 5 5 5 5 6 7 5 5 5 5 6 6 6 6 6 6 6 6 5 6 5 5 5 6 5 5 6 7 8 9
1 1 1 1 2 2 2 2 2 2 3 3 3 3 3 4 3 5 5 5 6 7 5 5 5 5 5 5 5 5 5 5 6 7 7 6 5 4 5 6 5 6 7 9 8 9 9
0 1 1 1 2 2 2 2 2 3 3 3 3 3 3 4 4 5 5 4 6 6 7 6 5 5 5 5 4 5 6 5 5 6 7 8 6 5 5 5 5 5 6 7 7 8 9
0 1 1 1 2 2 2 2 3 3 3 3 3 3 3 4 4 5 4 5 6 6 6 5 5 6 5 5 5 5 4 4 5 5 6 6 6 4 5 4 4 5 5 4 4 4 4
0 1 1 1 2 2 2 2 3 3 3 3 3 3 4 4 4 4 4 5 5 5 5 5 6 6 6 5 6 5 5 4 4 5 4 4 6 4 3 4 4 4 4 5 5 4 5
0 0 1 1 1 2 2 3 3 3 3 3 3 2 4 4 4 3 4 5 4 5 4 5 5 5 6 5 5 5 4 4 4 4 4 3 4 4 4 4 5 5 5 3 4 4 5
0 0 1 1 1 2 2 3 3 3 3 3 3 3 4 4 3 3 4 4 4 4 5 5 4 5 5 4 4 4 4 3 4 4 3 4 3 4 5 3 4 3 3 3 3 4 3
0 0 1 1 1 2 2 2 3 3 3 3 2 3 4 4 3 3 4 5 4 4 4 4 4 4 4 4 4 3 3 4 4 3 2 3 3 5 5 3 2 3 3 2 1 0 1
0 0 1 1 1 2 2 2 3 3 3 3 2 3 3 4 3 4 4 4 5 5 4 4 4 5 4 4 4 3 3 4 4 4 4 4 2 3 4 4 3 3 3 2 2 1 2
0 0 1 1 1 1 2 2 2 3 3 3 3 3 3 4 4 3 4 4 4 4 4 4 4 3 3 3 3 3 2 4 4 4 4 3 1 2 2 2 2 2 2 2 2 2 1
0 0 1 1 1 1 1 2 2 2 2 2 2 4 4 4 3 3 3 3 4 3 4 3 3 3 3 3 3 3 2 2 2 3 1 2 1 2 2 1 1 1 1 2 2 2 2
0 0 1 1 1 1 1 1 1 2 2 2 3 3 3 4 3 3 3 3 3 3 4 3 3 3 2 2 3 4 4 3 3 1 1 2 1 1 1 1 0 1 2 2 2 1 0
-0 0 0 1 1 1 1 2 2 2 2 2 2 3 3 4 3 3 3 3 2 2 3 2 2 2 3 3 3 3 3 3 2 2 1 1 1 -0 0 -0 0 1 1 1 0 0 0
-0 -0 0 0 1 1 1 1 2 2 2 2 2 3 3 3 3 3 3 2 3 3 3 3 3 3 3 2 2 2 2 2 2 1 1 0 -0 -1 -2 -1 -0 0 -1 -1 -1 -0 -1
-1 -0 0 0 1 1 1 1 1 2 2 2 3 3 3 3 3 3 2 3 3 2 2 2 2 2 2 2 2 2 1 1 0 0 0 -0 -1 -2 -3 -3 -1 -0 -1 -2 -1 -1 -2
-1 -0 -0 0 0 0 1 1 1 1 1 2 2 2 3 3 3 2 2 2 1 2 1 2 2 1 1 1 1 1 1 1 1 0 0 -1 -1 -2 -3 -3 -2 -1 -2 -2 -2 -2 -2
-1 -0 -0 0 0 0 1 1 1 1 1 1 1 2 2 2 2 2 2 2 2 1 2 2 1 1 1 1 1 1 1 -0 0 -0 -1 -1 -2 -2 -3 -3 -3 -2 -3 -3 -3 -4 -4
-1 -1 -0 -0 -0 0 0 1 0 1 1 1 1 1 1 1 2 2 2 1 1 1 -0 1 -0 1 1 1 1 0 0 -0 -0 -1 -0 -1 -2 -2 -2 -1 -1 -3 -3 -3 -4 -4 -5

GFSGBSN_700_temp_006.txt.gz
Temp
4 4 4 4 5 4 4 5 5 5 5 5 5 5 5 5 5 5 5 5 5 5 4 5 5 5 5 6 6 6 7 7 7 8 8 8 9 10 10 10 10 10 10 9 9 9 9
4 4 4 4 4 4 4 4 4 4 4 4 4 5 5 5 5 5 5 5 4 4 4 5 5 5 5 5 6 6 7 7 8 8 8 9 9 10 10 10 10 10 9 9 9 9 9
4 4 4 4 4 4 4 4 4 4 4 4 4 5 5 5 5 5 5 4 4 4 5 5 5 5 5 5 6 6 7 6 7 7 8 8 9 9 10 9 9 9 9 9 9 9 9
4 4 4 4 4 4 3 3 4 4 4 4 4 4 4 5 4 4 4 4 4 5 5 5 5 5 5 6 6 6 6 7 7 7 7 8 8 9 9 9 9 9 10 10 10 9 9
3 3 4 4 3 3 3 3 3 4 4 4 4 4 4 4 4 4 4 4 4 5 5 5 6 6 6 7 7 7 7 7 7 7 8 8 8 9 9 9 10 10 11 11 10 10 10
3 3 3 3 3 3 3 3 3 3 3 3 4 4 4 4 4 4 4 4 5 5 5 6 6 5 6 6 8 8 8 8 7 7 8 8 9 9 10 10 10 10 12 11 11 10 9
3 3 3 3 3 3 3 2 2 2 3 3 3 3 3 3 3 4 4 4 5 5 5 6 6 6 6 7 8 7 8 7 7 7 8 9 10 9 9 9 9 10 11 11 10 9 9
2 2 2 3 2 2 2 2 2 2 2 3 3 3 3 3 4 4 4 4 5 5 5 6 6 6 6 6 6 6 7 7 7 8 9 9 9 8 8 9 9 9 10 11 10 9 8
2 2 2 2 2 2 2 2 2 2 2 3 3 3 3 3 4 4 3 4 5 6 6 5 5 6 7 6 6 7 7 7 8 9 9 9 7 9 8 8 8 10 9 8 8 8 9
2 1 2 2 2 2 2 2 2 2 2 3 3 3 3 3 4 4 4 5 6 6 7 6 6 6 6 6 6 7 7 7 8 9 9 7 7 7 8 8 8 9 7 7 7 8 10
2 1 1 2 2 2 2 2 2 2 2 2 3 3 3 3 3 4 5 5 6 6 8 6 6 6 7 6 6 7 7 7 8 8 8 7 7 7 7 6 7 7 7 7 7 8 9
1 1 1 2 2 2 2 2 2 2 2 2 2 3 3 3 4 4 5 5 6 6 7 6 6 6 6 6 6 6 7 7 7 7 7 6 7 6 6 6 7 7 7 7 7 8 9
1 1 1 2 2 2 2 2 2 2 2 2 2 3 3 3 3 4 5 5 6 7 7 6 6 7 6 6 6 6 6 7 7 8 8 7 6 5 6 7 7 7 8 9 7 8 8
1 1 1 1 2 2 2 2 2 2 2 2 2 3 3 3 4 4 5 4 6 8 8 7 6 6 7 6 6 6 7 6 6 7 8 8 7 6 5 6 6 7 7 6 6 6 8
1 1 1 1 2 2 2 2 2 2 2 2 2 3 3 3 4 4 5 5 7 7 7 7 7 7 6 6 6 6 6 5 5 6 7 7 6 5 6 5 5 6 6 5 6 5 5
0 1 1 1 2 2 2 2 2 2 2 2 3 3 3 3 4 4 4 5 6 6 7 7 7 7 7 7 7 7 6 4 5 6 5 5 6 5 6 5 5 5 5 6 5 5 5
0 0 1 1 2 2 2 2 2 2 2 2 3 2 3 4 4 4 4 5 5 5 6 7 7 7 7 7 7 7 6 4 4 5 4 5 5 5 5 5 5 5 6 5 5 4 4
0 0 1 1 1 2 2 2 2 3 2 2 3 2 3 4 4 4 5 5 5 5 5 6 6 6 6 6 6 6 5 4 5 5 4 5 4 5 5 5 5 4 4 4 3 4 3
-0 0 1 0 1 2 2 2 2 3 2 2 3 2 3 4 3 4 4 4 5 4 5 5 5 5 5 5 5 5 4 5 5 5 5 5 4 5 5 4 4 4 4 3 2 2 2
-0 0 0 0 1 1 2 2 2 3 3 3 2 2 3 3 3 4 4 4 4 4 4 4 4 4 4 4 4 4 4 5 5 5 5 5 4 4 4 5 4 4 4 4 3 3 2
-0 0 0 0 1 1 2 2 2 2 3 2 3 3 3 3 3 4 4 5 4 4 4 4 4 4 4 4 4 4 3 4 4 5 5 4 3 3 3 3 3 3 3 3 3 3 3
-0 0 0 0 1 1 1 2 2 2 2 2 2 2 3 3 4 4 4 5 5 5 4 4 4 4 4 4 4 4 3 3 2 4 1 4 2 3 3 3 2 2 2 2 3 3 3
-0 0 0 0 1 1 1 1 2 2 2 2 2 3 3 4 3 3 4 4 5 4 4 4 4 4 4 3 3 3 3 3 3 1 2 3 3 2 2 2 2 2 2 3 2 2 2
-0 0 0 1 1 1 1 1 1 1 2 2 3 3 3 4 4 3 3 4 4 3 4 3 3 3 3 4 4 4 4 3 3 3 2 2 2 2 1 1 1 2 2 2 1 1 1
-0 0 0 0 1 1 1 1 1 1 2 2 2 2 3 3 4 3 3 3 3 3 3 2 2 3 3 3 3 3 3 3 2 2 2 1 1 1 -0 -1 1 1 0 1 -0 0 -0
-0 -0 0 0 1 1 1 1 1 2 2 2 2 2 3 3 3 3 3 3 2 2 2 3 3 3 3 2 2 2 2 2 0 1 1 1 1 -0 -1 -2 -1 1 0 -1 -1 -1 -2
-1 -0 -0 0 0 1 1 1 1 1 2 2 2 2 2 2 3 2 2 2 1 2 2 2 2 2 2 2 2 2 1 2 1 1 1 0 -0 -1 -3 -3 -2 -0 -1 -0 -2 -2 -2
-1 -0 -0 0 0 1 1 1 1 1 1 2 2 2 2 2 2 2 2 1 1 1 1 2 2 1 2 2 2 2 2 1 1 1 1 1 -0 -1 -3 -3 -2 -1 -2 -2 -2 -2 -3
-1 -0 -0 -0 0 0 0 1 1 1 1 1 1 1 2 2 2 2 2 2 2 1 1 2 1 2 1 1 1 1 1 1 1 0 1 0 0 -0 -1 0 -1 -2 -3 -2 -3 -3 -3

GFSGBSN_700_temp_009.txt.gz
Temp
4 4 4 4 4 4 4 5 5 4 5 5 5 5 5 5 5 5 5 5 5 5 5 5 5 6 5 5 6 6 7 7 7 8 9 9 9 9 10 10 10 10 10 10 10 10 9
3 4 4 4 4 4 4 4 4 4 4 5 5 5 5 5 5 5 5 5 5 4 5 5 5 5 5 5 6 6 7 7 7 8 8 8 9 9 10 10 10 10 9 9 9 9 9
3 4 4 4 4 4 4 4 4 4 4 4 5 5 5 5 5 5 5 5 4 4 5 5 5 5 5 5 5 6 7 7 7 7 8 8 9 10 10 10 10 9 9 9 9 9 9
3 3 3 4 4 4 3 3 4 4 4 4 4 4 4 4 4 4 4 4 4 5 5 5 5 5 5 6 6 6 6 7 7 7 8 8 9 9 9 9 9 9 9 9 9 9 9
3 4 3 3 3 3 3 3 3 4 4 4 4 4 4 4 4 4 4 4 5 5 5 5 5 5 5 6 6 6 7 7 7 8 8 9 9 9 9 9 9 9 9 10 9 9 9
3 3 3 3 3 3 3 3 3 3 4 4 4 4 4 4 4 4 4 4 5 5 5 5 5 5 6 6 7 7 7 7 7 8 8 8 9 9 9 9 9 10 10 10 10 9 9
3 3 3 3 3 2 2 3 3 3 3 4 4 4 3 4 4 4 4 5 5 5 5 5 6 6 6 6 6 7 7 7 8 8 8 9 8 8 9 9 9 10 10 10 9 9 9
2 3 3 3 2 2 2 2 3 3 3 3 3 3 3 3 4 4 4 4 4 5 5 5 5 6 6 6 7 7 7 8 8 8 8 9 9 9 8 8 9 10 10 9 9 9 9
2 3 2 2 2 2 2 2 2 2 3 3 3 3 3 3 4 3 3 3 4 5 5 5 5 6 6 6 6 7 7 7 8 8 9 9 8 8 8 8 9 9 9 9 9 9 10
2 2 2 2 2 2 2 2 2 2 2 3 3 3 3 3 3 3 4 5 5 5 6 6 6 6 6 6 7 7 7 8 8 8 8 8 7 7 8 8 8 8 8 8 8 8 8
2 2 2 2 2 2 2 2 2 2 2 3 3 3 3 3 3 3 4 5 5 5 2 6 6 6 6 6 7 7 7 7 7 8 8 7 7 7 7 7 8 7 7 8 8 7 8
1 1 2 2 2 2 2 2 2 2 2 2 3 3 3 3 3 4 4 5 5 6 6 6 6 6 6 6 6 7 7 7 7 7 7 7 7 7 7 7 7 7 7 8 7 7 7
0 1 1 2 2 2 2 2 2 2 2 2 3 3 3 3 3 4 5 5 6 6 7 6 6 6 6 6 6 6 6 6 7 7 7 6 6 6 6 6 6 7 7 7 5 3 3
0 1 1 1 2 2 2 2 2 2 2 2 2 2 3 3 4 4 5 5 5 7 7 7 7 7 6 6 6 6 6 6 7 7 7 7 6 6 6 6 6 6 6 5 4 0 4
1 1 1 1 1 2 2 2 2 2 2 2 2 2 3 3 4 5 5 5 6 7 7 7 6 7 6 6 6 6 6 6 6 7 7 6 5 6 6 6 6 6 6 6 5 5 4
1 1 1 1 1 1 2 2 2 2 2 2 2 2 3 3 4 4 4 5 6 7 7 7 7 7 7 6 6 6 6 5 5 6 7 6 5 6 5 5 5 6 6 5 5 1 3
1 0 1 1 1 1 2 2 2 2 2 2 2 2 3 3 4 4 4 5 5 6 7 6 7 7 7 7 7 6 5 5 6 6 6 6 6 5 5 5 5 5 5 5 5 4 1
0 0 1 1 1 1 2 2 2 2 2 2 2 2 3 3 3 4 5 5 5 6 6 6 6 7 6 6 6 6 5 5 5 6 5 6 6 5 5 5 5 5 4 4 4 3 3
0 0 0 1 1 1 2 2 2 2 2 2 2 2 3 3 3 4 4 5 5 5 5 5 6 6 6 6 5 5 5 5 5 6 6 6 5 5 4 4 4 4 4 3 3 3 3
-0 0 0 1 1 1 1 2 2 2 2 2 2 2 2 3 4 4 4 4 4 4 5 5 5 5 5 5 5 4 5 5 5 5 6 5 5 4 4 4 4 4 4 4 3 3 3
-0 0 0 0 1 1 1 2 2 2 2 2 2 3 3 3 3 4 4 4 4 4 4 5 4 4 5 4 4 4 4 4 5 5 5 5 4 4 4 4 3 3 3 3 3 3 3
-0 -0 0 0 0 1 1 2 2 2 2 2 2 2 3 3 4 4 4 4 4 4 4 4 4 4 4 4 4 4 4 4 4 4 5 4 4 4 3 3 3 3 3 3 3 2 3
-0 -0 0 0 0 0 1 1 2 2 1 2 1 2 3 3 4 4 4 4 5 4 4 4 4 4 4 4 4 4 3 3 4 4 4 4 4 4 3 3 3 2 2 2 2 2 2
-1 -0 0 0 0 0 0 1 1 2 2 2 2 2 3 3 3 3 4 4 4 4 4 4 4 4 4 4 4 4 3 3 3 3 4 3 3 3 3 2 -3 2 2 2 1 1 1
-1 -0 -0 0 0 1 0 1 1 1 2 2 2 2 3 3 3 3 3 4 4 4 4 3 3 3 4 3 3 3 3 3 3 2 2 3 2 2 1 1 2 2 2 2 1 1 1
-1 -0 -0 0 0 1 1 1 1 1 1 1 2 2 3 3 3 3 3 3 3 3 3 3 3 3 3 3 3 3 3 2 2 2 2 2 2 1 0 -0 -4 1 0 0 -0 -1 -0
-1 -1 -0 -0 0 1 1 1 1 1 1 2 2 2 2 3 3 3 3 3 3 3 3 3 2 2 3 3 3 2 2 2 2 1 2 1 0 0 -0 -1 1 1 0 1 -1 -0 -1
-1 -1 -0 -0 0 0 1 1 1 1 2 2 2 2 2 3 3 2 2 2 2 2 2 2 2 2 3 2 2 2 2 2 1 1 2 2 1 1 -2 -3 -1 1 -0 -1 -1 -2 -2
-1 -1 -1 -0 -0 0 0 1 1 1 1 2 2 2 2 2 2 2 2 2 2 1 2 2 1 2 2 2 2 2 2 2 2 1 1 0 2 1 1 1 1 -0 -1 -1 -1 -2 -2

GFSGBSN_700_temp_012.txt.gz
Temp
4 4 4 4 4 4 4 5 5 5 5 5 5 5 5 5 5 5 5 5 5 5 5 5 5 5 5 5 6 6 7 7 7 7 7 7 8 8 9 9 9 9 10 9 9 9 9
4 4 4 4 4 4 4 5 5 5 4 5 5 4 5 5 5 5 5 5 5 5 5 5 5 5 5 5 6 6 6 6 7 7 7 8 8 8 9 9 9 10 9 9 9 9 9
4 4 4 4 4 4 4 5 4 4 4 4 4 4 5 5 5 5 4 5 5 5 5 5 5 5 5 5 5 6 6 6 7 7 8 8 8 9 9 10 9 9 10 9 9 9 9
4 3 4 3 4 4 4 4 4 4 4 4 4 4 4 4 4 4 4 5 4 5 5 5 5 5 5 5 6 6 6 7 7 7 8 8 8 9 9 9 9 9 9 9 9 9 9
3 3 3 3 4 4 4 3 4 3 4 4 4 4 4 4 4 4 4 4 4 5 5 5 5 5 5 6 6 6 7 7 7 7 8 8 8 9 9 9 9 9 9 9 9 9 9
3 3 3 3 4 3 3 3 3 3 3 3 4 4 4 4 4 4 4 4 5 5 5 5 5 5 5 6 6 7 7 7 8 8 8 9 9 9 9 9 9 9 9 9 9 9 9
3 3 3 3 3 3 3 3 3 3 3 3 4 4 4 4 4 4 4 5 5 5 5 5 5 5 6 6 6 7 7 7 8 8 8 8 8 8 9 9 9 9 10 9 9 9 9
3 3 3 3 3 3 3 2 2 3 3 3 3 3 4 4 4 4 4 4 5 4 5 5 5 6 6 6 6 7 7 7 8 8 8 8 8 8 8 9 9 9 9 9 9 9 9
3 3 3 3 2 2 2 2 2 3 3 3 3 3 3 4 4 3 3 4 4 5 5 5 5 5 6 6 6 7 7 8 8 8 8 8 8 8 8 8 8 8 9 8 8 8 8
3 3 3 2 2 2 2 2 2 2 3 3 3 3 3 3 2 2 3 4 4 5 5 5 5 5 6 6 6 7 7 7 7 8 8 8 7 7 7 8 8 8 7 7 8 8 9
2 2 2 2 2 2 2 2 2 2 3 3 3 3 3 3 3 4 4 4 5 5 2 5 6 6 6 6 7 7 7 7 7 7 8 7 7 7 7 7 7 7 8 8 8 8 7
2 2 2 2 2 2 2 2 2 2 2 2 2 2 3 3 3 4 4 5 5 5 5 6 6 6 6 6 6 7 7 7 7 7 7 7 6 7 7 6 6 7 7 7 7 7 6
2 2 2 2 2 2 2 2 2 2 2 2 2 3 3 3 3 4 4 5 5 5 6 6 6 6 6 6 6 7 7 7 7 6 7 6 6 6 6 6 6 6 7 7 4 2 3
1 1 1 1 1 2 2 2 2 2 2 2 3 3 3 3 4 4 5 5 5 7 6 6 6 6 6 6 6 6 6 6 6 6 6 6 5 6 6 6 6 6 7 6 4 0 3
1 1 1 1 1 1 2 2 2 2 2 2 2 3 3 3 4 4 4 5 6 6 7 6 6 6 6 6 6 6 6 6 6 7 6 6 5 5 5 6 6 6 5 5 5 4 4
1 1 0 1 1 1 2 2 2 2 2 2 2 2 3 3 3 4 5 5 6 7 7 7 6 6 6 6 6 6 6 5 6 6 6 6 5 5 5 6 6 6 5 5 5 1 2
0 0 0 0 1 1 2 2 2 2 2 2 2 2 3 3 3 4 5 5 5 6 6 6 6 6 6 6 6 6 5 5 5 6 6 7 6 5 5 5 5 5 5 5 4 4 0
-0 -0 0 0 0 1 2 2 2 2 2 2 2 2 3 3 3 4 5 5 5 6 6 6 6 6 7 6 6 6 6 5 6 6 6 6 5 5 4 5 5 4 4 4 4 3 3
-1 0 0 -0 0 1 1 1 2 2 2 2 3 2 3 3 3 4 5 4 5 5 6 6 6 6 6 6 6 6 6 5 5 6 6 6 5 4 4 4 4 4 3 4 3 3 3
-1 -0 -0 -0 1 1 1 1 2 2 2 2 2 2 2 3 3 4 4 4 4 5 5 5 6 5 6 6 5 5 5 5 5 5 5 5 5 5 5 5 4 4 3 3 3 3 3
-1 -0 -1 0 0 1 1 1 2 2 2 2 1 2 3 3 3 4 3 4 4 5 4 4 5 5 5 5 5 5 5 5 5 5 5 5 6 5 4 4 3 4 3 3 3 2 2
-1 -1 -0 -0 0 1 1 1 2 2 2 1 2 2 3 3 3 4 3 4 4 4 4 4 4 4 4 4 5 5 5 5 5 5 5 5 5 4 4 4 4 4 3 3 3 2 2
-1 -1 -0 -0 0 1 1 1 1 2 1 2 2 2 3 4 3 3 4 4 4 4 4 4 4 4 4 4 4 4 4 4 4 5 5 4 5 4 4 3 3 3 3 3 2 2 2
-1 -1 -0 -0 0 1 1 1 1 2 1 1 2 2 3 3 3 3 4 4 4 4 4 4 4 4 4 4 4 3 3 3 3 3 4 4 4 3 3 2 -3 3 4 3 2 2 2
-1 -1 -0 0 0 0 1 1 1 1 1 1 1 2 3 3 3 3 4 4 4 4 4 4 4 4 4 4 3 3 3 3 3 3 3 3 3 3 3 2 3 3 2 2 2 1 1
-1 -1 -0 0 0 0 1 1 1 1 1 2 2 2 3 3 3 3 3 3 4 3 4 4 4 4 3 3 3 3 3 3 2 2 3 2 2 2 2 1 -4 3 3 2 2 1 2
-1 -1 -0 0 0 0 0 1 1 1 2 2 2 2 2 3 3 3 3 3 3 3 3 3 3 3 3 3 3 3 3 2 2 2 3 2 1 2 1 0 2 3 2 1 -0 1 0
-1 -1 -0 -0 0 0 1 1 1 1 1 1 2 2 2 2 3 3 3 3 3 3 3 3 2 2 3 2 2 2 2 2 2 2 3 2 2 2 0 -1 0 2 1 1 1 0 -0
-1 -1 -0 -0 -0 0 1 1 1 1 1 2 2 2 2 2 2 2 2 2 2 2 2 2 2 2 2 2 2 2 2 2 2 1 2 1 2 2 2 3 2 1 1 -0 -0 -1 -1

GFSGBSN_700_temp_015.txt.gz
Temp
5 5 5 4 4 4 4 4 4 5 5 5 5 5 5 5 5 5 5 5 5 5 5 5 5 5 5 5 5 5 6 6 6 7 7 7 7 7 8 8 8 9 9 9 10 9 9
5 5 5 4 4 4 4 4 4 5 5 5 5 5 5 5 5 5 5 5 5 5 5 5 5 5 5 5 5 6 6 6 7 7 7 7 8 8 8 8 9 9 9 9 9 9 9
5 5 4 4 4 4 4 4 4 5 5 4 5 4 5 4 5 4 4 4 5 5 5 5 5 5 5 5 5 6 6 6 7 7 7 8 8 8 8 9 9 9 9 9 9 9 9
4 5 4 4 4 3 4 4 4 5 4 4 4 4 4 4 4 4 4 4 4 4 4 5 5 5 5 5 5 6 6 6 7 7 7 8 8 9 9 9 9 9 9 8 8 8 8
4 4 4 4 4 3 4 4 4 4 4 4 4 4 4 4 4 4 4 4 4 4 4 5 5 5 5 6 6 6 6 7 7 7 8 8 8 9 9 9 9 9 9 9 9 8 8
4 4 4 4 3 3 3 4 4 4 4 4 4 4 4 4 4 4 4 4 4 4 5 5 5 5 5 5 6 6 6 7 7 8 8 8 8 9 9 9 9 9 9 9 9 9 8
3 3 4 4 3 3 4 4 4 4 4 4 4 4 4 4 4 4 4 4 4 4 5 5 5 5 5 5 6 6 7 7 8 8 8 8 8 8 9 9 9 9 9 9 9 9 9
3 3 4 3 3 3 3 3 3 4 3 3 3 4 4 4 4 3 3 4 4 5 5 5 5 5 5 5 6 6 7 7 8 8 8 8 8 8 8 9 9 9 9 8 8 8 8
3 3 3 3 3 3 3 3 3 3 3 3 3 3 3 3 3 3 3 4 4 4 5 5 5 5 5 6 6 7 7 7 7 8 8 8 8 8 8 8 8 8 9 9 8 8 7
2 3 3 3 3 3 3 2 3 3 3 3 3 3 3 3 3 2 3 4 4 4 5 5 5 5 5 6 6 7 7 7 7 8 8 8 7 7 7 7 7 8 8 8 8 8 7
2 2 2 3 3 2 2 2 2 3 3 3 3 3 3 3 2 3 3 4 4 5 1 5 5 5 6 6 7 6 7 7 7 7 7 7 7 7 7 7 7 7 7 7 7 7 6
1 2 2 3 2 2 2 2 2 2 2 3 3 3 3 2 3 3 4 4 4 4 5 5 5 5 5 6 6 6 7 7 7 7 7 7 7 7 6 7 6 6 6 6 6 6 5
1 1 2 2 2 2 2 2 2 2 2 2 3 2 3 3 3 3 4 4 4 4 5 5 5 5 5 6 6 6 6 7 7 7 7 6 6 6 6 6 6 6 7 6 4 2 1
1 1 2 2 1 1 2 2 2 2 2 2 2 2 3 3 3 4 4 4 4 6 6 6 5 5 5 5 6 6 6 6 6 7 6 6 5 6 6 6 6 6 6 6 5 0 3
-0 1 1 1 1 1 1 2 2 2 2 2 2 2 3 3 3 4 4 4 5 6 6 6 5 5 5 5 6 6 6 6 6 6 6 6 5 5 5 6 6 6 6 5 5 3 3
-1 0 1 1 0 1 1 1 1 1 2 2 2 2 3 3 3 4 4 4 5 6 6 6 5 6 6 5 5 6 6 6 6 6 6 6 5 5 5 5 6 6 5 5 5 1 2
-0 -0 0 0 0 1 1 1 1 1 2 2 2 2 3 3 3 4 4 4 5 6 6 6 6 6 6 5 5 5 5 5 5 6 6 6 6 5 5 5 5 5 5 5 4 4 -1
-0 -1 -0 -0 0 1 1 1 1 1 1 2 2 2 3 3 3 4 4 4 5 5 6 6 6 6 6 6 5 6 6 5 5 5 6 6 5 5 5 5 5 5 5 4 4 3 3
-0 -1 -0 -0 0 1 1 1 1 1 1 2 2 2 3 3 3 4 5 4 5 5 5 6 6 6 6 6 6 5 5 5 5 5 5 5 5 4 4 4 4 4 4 3 3 3 3
-1 -1 -0 -0 0 1 1 1 1 1 1 1 2 2 3 3 3 4 4 4 4 4 5 5 6 6 6 6 6 6 5 5 5 5 5 5 5 6 5 5 5 4 3 3 3 3 3
-1 -1 -1 -0 0 1 1 1 1 1 1 1 1 2 3 3 3 4 4 4 4 4 4 4 5 5 6 6 5 5 5 5 5 5 5 5 5 5 5 5 5 4 3 3 3 3 2
-1 -1 -1 -0 0 1 1 1 1 1 1 1 1 1 3 3 4 4 3 3 3 4 4 4 5 5 5 5 5 5 5 5 5 5 5 5 5 5 4 4 4 4 4 3 3 3 3
-1 -1 -1 0 0 1 1 1 1 1 1 1 1 2 2 3 3 4 4 3 4 4 4 4 4 4 4 4 4 4 4 4 5 5 5 5 4 4 4 4 3 3 5 4 4 4 3
-1 -1 -0 0 0 0 0 1 1 1 1 1 1 2 2 3 3 3 3 3 4 4 4 4 4 4 4 4 4 4 4 3 4 4 4 4 4 4 4 3 -3 5 5 4 4 3 3
-1 -1 -0 -0 -0 0 0 1 1 1 1 1 1 2 3 3 3 3 3 3 4 4 4 4 4 4 4 4 3 3 3 2 3 3 3 4 3 3 3 2 3 4 5 4 4 3 3
-1 -1 -0 -0 -1 0 0 1 1 1 1 0 1 2 2 3 2 3 3 3 4 4 3 4 4 3 3 3 3 3 3 3 3 3 3 3 2 2 2 1 -4 4 4 4 3 2 3
-1 -1 -0 -1 -1 0 0 1 1 1 0 -0 1 2 2 3 3 3 3 3 3 3 3 3 3 3 3 3 3 3 3 3 3 3 3 3 2 1 1 1 2 4 3 3 1 3 2
-2 -1 -0 -1 -1 -0 0 1 1 1 1 1 1 2 2 3 3 3 3 3 3 3 3 3 3 3 3 2 2 2 2 3 2 3 3 3 2 2 1 0 1 3 3 2 3 2 1
-1 -1 -1 -1 -1 -0 0 1 1 1 1 1 2 2 2 2 3 3 3 3 2 3 3 3 2 2 2 2 2 2 2 2 3 2 3 1 3 2 2 3 3 2 2 1 0 0 -0

GFSGBSN_700_temp_018.txt.gz
Temp
5 5 5 5 6 5 5 5 4 4 4 5 4 5 5 5 5 5 5 5 5 5 5 5 5 5 5 5 5 5 5 6 6 6 6 6 6 6 7 7 8 8 8 9 9 9 8
4 4 5 5 5 5 5 5 4 4 4 4 4 5 5 5 5 5 5 5 5 5 5 5 5 5 5 5 5 5 6 6 6 7 7 7 7 7 8 8 8 8 8 9 9 8 8
4 4 4 5 5 5 5 4 4 4 4 4 5 5 5 5 5 4 4 4 4 4 4 5 5 5 5 5 5 6 6 6 6 7 7 7 8 8 8 8 8 9 9 9 9 9 8
3 3 4 4 5 5 4 4 4 4 4 4 5 5 5 4 4 4 4 4 4 4 4 4 5 5 5 5 5 6 6 6 7 7 7 8 8 8 8 8 8 8 8 8 8 8 8
3 3 4 4 4 4 4 4 4 4 4 4 4 5 4 4 4 4 4 4 4 4 4 4 5 5 5 5 5 6 6 7 7 7 8 8 8 9 9 9 8 8 8 8 8 8 8
2 3 3 4 4 4 4 4 4 4 4 4 4 4 4 4 4 4 4 4 4 4 4 5 5 5 5 5 5 6 6 6 7 7 8 8 8 8 9 9 9 9 9 9 9 8 8
2 2 3 4 4 4 3 4 4 4 4 4 4 4 4 4 4 3 3 3 3 4 4 5 5 5 5 5 6 6 6 7 7 7 7 8 8 8 9 8 9 9 9 9 8 8 8
1 2 3 3 3 3 3 3 4 4 4 4 4 4 4 4 3 3 3 3 4 4 5 5 5 5 5 5 6 6 6 7 7 7 8 8 8 8 8 8 8 9 9 8 8 8 8
0 1 2 3 3 3 3 4 3 3 3 3 3 4 3 3 3 2 3 4 4 4 5 5 5 5 5 5 5 6 6 6 7 7 8 8 8 8 7 8 9 8 7 7 8 7 7
-1 1 2 3 3 3 3 3 3 3 3 3 3 3 3 3 2 2 3 4 4 4 5 5 5 5 5 5 6 6 6 6 7 7 8 8 7 7 8 8 8 8 7 7 7 8 6
-1 1 1 2 3 2 3 3 3 3 3 3 3 3 3 2 2 2 3 4 4 5 1 5 5 5 5 5 5 6 6 7 7 7 7 7 7 7 7 7 7 7 7 7 7 7 6
-1 0 1 2 2 2 3 3 3 3 2 3 3 3 2 2 2 2 3 4 4 4 4 5 5 5 5 5 6 6 7 7 7 7 7 7 7 7 7 7 7 7 7 7 6 6 4
-1 -0 1 1 2 2 2 2 2 2 2 2 2 2 2 2 2 2 4 4 4 4 5 5 5 5 5 5 6 6 7 7 7 7 6 6 6 6 6 6 6 6 6 5 3 2 1
-1 -1 0 1 1 2 2 2 2 2 2 2 2 2 2 2 2 3 4 4 4 5 5 5 5 5 5 5 6 6 6 6 6 7 6 6 5 5 5 5 6 6 6 6 4 -0 1
-2 -1 -0 0 1 1 1 1 1 1 2 2 2 2 2 2 3 3 4 4 4 5 5 5 5 5 5 5 5 5 6 6 6 6 6 5 5 5 5 5 5 6 6 5 5 3 2
-2 -1 -0 0 0 1 1 1 1 1 1 2 2 2 2 2 3 3 4 4 4 5 5 5 5 5 5 5 5 5 5 5 6 6 6 6 5 5 4 5 5 5 5 5 5 0 2
-2 -1 -0 0 -0 0 1 1 0 1 1 1 1 2 2 3 3 3 4 4 4 5 5 5 5 5 5 5 5 5 5 5 5 6 6 6 6 5 4 5 5 4 5 5 4 3 -2
-2 -1 -0 -0 -0 0 0 0 0 0 1 1 1 2 2 3 3 3 4 4 4 5 5 5 5 5 6 5 5 5 5 5 5 5 5 5 6 4 4 5 5 4 4 4 4 3 3
-3 -1 -1 -0 -0 0 0 0 0 0 1 1 1 2 2 2 3 3 4 4 4 5 5 5 5 6 6 6 5 5 5 5 5 5 5 5 5 4 4 4 4 4 4 4 4 4 3
-3 -2 -1 -1 -0 0 0 0 0 0 0 1 1 1 2 2 3 4 4 4 4 4 5 5 5 6 6 5 5 6 5 5 5 5 5 5 5 5 6 5 5 4 5 4 3 3 3
-3 -2 -1 -1 -0 0 0 0 0 0 0 0 1 1 2 2 3 4 4 4 4 4 5 5 5 5 5 5 5 5 5 5 5 5 5 4 5 5 5 5 5 5 5 4 4 3 3
-3 -2 -1 -1 -0 0 1 0 0 0 0 0 1 1 2 3 3 4 4 4 4 4 4 4 4 5 5 5 5 5 5 4 5 5 5 4 5 5 4 5 4 4 4 4 4 4 4
-3 -2 -1 -1 -0 0 0 1 1 0 0 0 1 1 2 3 3 3 4 3 3 3 4 4 4 4 4 4 4 4 4 4 4 4 5 4 4 4 4 4 4 4 6 6 6 5 5
-3 -2 -1 -0 0 0 0 1 1 0 0 0 0 1 1 2 3 4 4 3 3 3 4 3 4 4 4 4 4 4 3 4 4 4 4 4 4 4 4 3 -3 6 6 6 5 5 5
-2 -1 -1 -0 -0 0 0 1 1 0 0 0 0 1 1 2 3 3 4 3 3 3 3 3 4 4 4 3 3 3 3 3 3 3 3 3 3 3 3 2 4 5 5 5 5 5 5
-2 -1 -1 -1 -0 0 0 0 1 1 0 0 0 1 1 2 3 3 3 3 3 3 3 3 3 3 3 3 3 3 3 3 3 3 4 3 3 2 2 1 -5 4 5 5 4 3 4
-2 -1 -1 -1 -0 -0 0 1 1 0 0 0 0 1 1 2 3 3 2 3 3 3 3 3 3 3 3 3 3 3 3 3 3 3 3 3 3 2 2 1 2 3 3 3 2 4 3
-2 -1 -1 -1 -0 -0 1 1 1 0 1 0 0 1 1 2 2 2 2 3 3 3 3 3 3 3 3 2 2 2 2 2 2 3 3 3 3 3 2 0 1 3 3 2 3 2 1
-2 -1 -1 -1 -0 0 0 0 0 1 -0 -1 -0 1 2 2 2 2 2 3 3 3 3 3 3 3 2 2 2 2 2 2 3 2 3 2 3 2 2 3 3 2 2 1 1 1 0

GFSGBSN_700_temp_021.txt.gz
Temp
5 5 5 6 5 5 5 6 5 5 4 4 5 4 4 5 5 5 5 5 5 5 5 5 5 5 5 5 5 5 5 5 5 5 5 6 6 6 6 6 7 8 8 8 8 8 8
4 4 5 5 5 5 5 5 5 5 4 4 4 4 4 5 5 5 5 5 5 5 5 5 5 5 5 5 5 5 5 6 6 6 6 6 6 6 7 7 7 8 8 8 9 8 8
4 4 4 4 4 4 5 5 5 5 4 4 4 4 5 4 4 5 5 4 4 5 5 5 5 5 5 5 5 5 5 6 6 6 6 6 6 7 7 7 8 8 8 8 9 8 8
4 3 3 4 4 4 4 5 5 5 4 4 4 4 4 4 4 4 4 4 4 4 4 4 5 5 4 5 5 6 6 6 6 6 7 7 7 7 7 7 8 8 8 8 7 7 8
4 3 3 3 4 4 4 4 4 4 4 5 4 4 4 4 4 4 4 4 4 4 4 4 4 5 4 5 5 6 6 6 6 6 7 7 8 8 8 8 8 8 8 8 7 8 8
3 3 2 3 3 4 4 4 4 4 4 4 4 4 4 4 4 4 3 3 4 4 4 4 5 4 5 5 6 6 6 6 6 7 7 8 8 8 8 8 8 8 8 8 8 8 8
2 1 2 2 3 3 4 4 4 4 4 4 4 4 3 3 4 4 4 3 3 3 4 4 5 5 5 5 6 6 6 6 6 7 7 7 8 8 7 8 8 8 8 8 8 8 8
1 1 2 2 2 3 3 3 4 3 4 4 4 3 3 3 3 3 3 3 3 4 4 4 5 5 5 5 5 6 6 6 6 7 7 8 8 8 8 8 8 8 8 8 8 8 8
1 1 1 2 2 2 3 3 3 3 4 4 3 3 3 3 3 2 3 3 3 4 4 5 4 4 5 5 5 6 6 6 7 6 7 8 8 8 8 8 8 8 8 7 7 7 7
1 0 0 2 2 2 3 3 3 3 4 3 3 3 3 2 2 3 3 3 3 4 4 5 5 5 5 5 5 6 6 6 6 7 7 7 7 7 7 8 7 8 7 7 7 7 7
1 -1 -1 1 2 2 2 2 3 3 3 3 3 3 2 2 2 3 3 3 4 4 3 5 5 5 5 5 5 5 6 6 6 7 7 7 7 7 7 7 7 7 7 7 7 7 7
1 -1 -2 1 1 2 2 2 2 3 3 3 2 2 2 2 2 3 3 3 4 4 4 5 5 5 5 5 5 5 6 6 6 7 7 7 7 7 7 7 7 7 6 6 6 6 5
0 -2 -2 -0 1 1 2 2 2 2 2 2 2 2 2 2 2 2 3 3 3 4 4 4 4 5 5 5 5 6 6 6 6 6 6 6 6 6 6 6 6 6 6 5 5 5 5
-4 -3 -2 -1 -0 1 1 1 1 2 2 2 2 1 2 1 1 2 3 3 4 4 5 5 5 5 5 5 5 6 6 6 7 7 6 6 6 6 6 6 6 6 6 6 4 4 4
-7 -3 -2 -1 -1 1 1 1 1 1 1 1 1 1 2 1 1 2 3 3 4 4 5 5 5 4 5 5 5 5 6 6 6 6 7 6 5 5 5 5 5 5 5 5 5 3 3
-8 -4 -2 -2 -1 0 0 0 0 0 1 1 1 1 1 1 2 2 2 3 4 4 5 5 5 4 4 5 5 5 5 5 6 6 6 6 5 5 5 5 5 5 5 4 5 3 3
-9 -6 -2 -2 -1 -0 -0 -0 -0 -0 1 0 1 1 1 2 2 2 3 3 4 4 5 5 5 5 5 5 5 5 5 5 5 5 5 6 6 4 4 4 5 5 4 5 4 4 3
-8 -7 -3 -2 -2 -1 -1 -0 -1 -0 0 0 1 1 1 2 2 2 3 4 4 4 5 5 5 5 5 5 5 5 5 5 5 5 5 5 5 5 4 4 4 4 5 5 5 3 3
-8 -7 -3 -4 -2 -1 -1 -1 -1 -0 -0 0 0 0 1 2 2 2 3 4 4 4 5 5 5 5 5 5 5 5 5 5 5 5 5 5 5 4 4 4 4 4 5 5 4 4 3
-8 -6 -4 -4 -2 -1 -1 -1 -0 -1 -1 0 0 0 1 1 2 3 3 4 4 4 4 5 5 5 5 5 5 5 5 5 5 5 5 5 5 5 5 6 5 5 5 4 4 4 4
-8 -6 -4 -3 -2 -2 -1 -1 -0 -0 -1 -0 -0 1 1 1 2 3 3 4 3 4 4 5 5 5 5 5 5 5 5 5 5 5 5 4 5 5 5 5 5 5 5 5 5 5 4
-6 -4 -4 -3 -3 -2 -1 -1 -0 -0 -1 -1 -1 0 1 2 2 3 3 3 4 3 4 4 5 5 5 5 5 5 5 5 4 4 4 4 4 4 4 5 5 5 5 5 4 4 4
-5 -5 -4 -3 -3 -2 -1 -1 -0 -0 -0 -1 -0 0 1 2 2 2 3 3 4 3 3 4 4 4 4 4 4 4 4 4 4 4 4 4 4 4 4 5 4 3 6 6 6 6 5
-5 -4 -4 -3 -2 -2 -1 -0 -0 -0 -0 -0 -0 0 1 2 2 3 3 3 4 3 3 4 4 4 4 4 4 4 3 3 3 4 4 4 4 3 3 3 1 5 6 6 6 6 6
-4 -4 -3 -3 -2 -1 -1 -0 -0 -0 -0 -0 -0 0 1 1 2 3 3 3 3 3 3 4 3 3 3 3 3 3 3 3 3 3 3 3 3 3 3 2 4 5 5 5 5 5 5
-3 -3 -3 -2 -2 -1 -0 0 0 -0 -0 -0 -0 0 0 1 2 3 3 3 3 3 3 3 3 3 3 3 3 3 3 3 3 3 3 3 3 2 2 2 -0 4 5 5 4 3 4
-4 -4 -3 -2 -1 -0 0 0 0 0 -0 -0 -1 -0 0 1 2 2 3 3 3 3 3 3 3 3 3 3 3 3 3 3 3 3 3 3 3 2 2 1 2 4 3 3 2 3 2
-3 -2 -2 -1 -1 -0 0 0 0 0 -0 -0 -0 0 1 1 1 2 2 3 3 3 3 3 3 3 3 2 2 2 2 2 2 2 3 3 3 3 2 1 1 3 2 2 2 2 1
-3 -3 -2 -1 -1 -0 0 0 0 -0 -0 -0 -1 -0 0 1 2 2 2 2 2 3 3 3 3 3 3 2 2 2 2 2 2 2 3 2 2 2 2 3 3 2 1 1 1 0 0

GFSGBSN_700_temp_024.txt.gz
Temp
5 4 4 5 5 5 5 5 5 6 6 6 6 5 5 5 5 5 5 5 5 5 5 5 5 5 5 5 5 5 5 5 5 6 5 5 5 5 5 6 6 7 7 7 7 8 8
5 5 4 4 4 5 5 5 5 5 5 5 6 5 5 5 5 5 5 5 5 5 5 5 5 5 5 5 5 5 5 5 5 5 5 5 5 5 6 6 6 7 7 8 8 8 7
4 5 4 4 4 4 4 4 5 5 5 5 5 5 5 5 5 5 5 4 5 4 5 5 5 5 5 5 5 5 5 6 6 5 5 5 5 5 6 7 7 7 8 8 8 7 7
3 4 4 4 4 3 4 4 4 4 5 5 5 5 5 5 5 5 4 4 4 4 4 4 5 5 5 5 5 5 5 6 6 6 6 6 6 6 7 7 7 7 8 9 7 7 8
4 4 4 4 4 3 3 4 4 4 4 4 5 4 5 5 5 4 4 4 4 4 4 4 5 5 4 5 5 5 5 6 6 6 6 6 7 7 7 7 7 8 9 8 7 8 8
3 3 3 3 3 3 3 3 4 4 4 4 4 4 5 4 4 4 4 4 4 4 4 4 4 4 4 5 5 5 5 6 6 6 6 7 7 7 7 7 9 9 9 8 8 7 8
3 3 3 3 3 2 2 3 4 4 4 4 4 4 4 4 4 4 3 3 3 3 4 4 4 5 5 5 5 5 5 6 6 6 6 7 6 7 7 8 8 8 9 8 7 8 8
3 3 3 2 2 2 2 2 3 4 3 4 4 4 4 4 4 3 3 3 3 4 4 4 5 5 5 5 5 6 5 6 6 6 6 7 7 8 8 8 8 8 8 8 8 8 8
3 3 3 3 2 2 2 2 3 3 3 3 3 4 4 4 3 3 3 3 3 4 4 4 5 5 5 5 6 6 6 6 6 6 7 7 7 8 8 8 8 8 8 8 8 8 8
3 3 3 3 2 2 2 1 2 3 3 3 3 3 3 3 2 2 3 3 3 4 4 5 5 5 5 5 5 6 6 6 6 6 7 7 7 7 8 8 8 8 8 8 8 7 9
2 2 3 3 3 1 1 1 2 3 3 3 3 3 3 3 2 2 2 3 3 4 6 5 5 5 5 5 5 6 6 6 6 7 7 7 7 7 7 7 7 7 7 6 7 8 7
1 2 2 3 3 1 0 1 1 2 3 2 3 3 3 3 2 2 2 3 3 4 5 5 5 5 5 5 5 5 6 6 6 6 7 7 7 7 7 7 7 7 7 7 7 7 8
-2 0 2 2 3 1 0 0 1 2 2 2 2 2 3 2 2 2 2 3 3 5 5 4 4 5 5 5 5 5 6 6 6 6 6 6 6 6 7 6 6 6 7 8 7 8 8
-4 -2 0 2 2 0 -0 -0 1 2 2 2 2 2 2 1 2 2 2 3 4 5 4 4 4 5 5 5 5 5 6 6 6 7 7 7 6 6 6 6 6 6 7 8 7 8 8
-8 -5 -2 1 -0 -1 -1 -1 0 1 1 1 1 2 2 1 1 2 2 3 4 4 4 4 4 5 5 5 5 5 5 6 6 7 7 7 6 6 6 5 5 5 6 6 6 4 5
-9 -9 -8 -5 -4 -2 -2 -1 0 1 1 1 1 1 1 1 1 2 2 3 4 4 4 5 5 5 5 5 5 5 5 6 6 6 6 6 5 5 5 5 5 5 5 5 5 6 7
-10 -9 -8 -8 -5 -3 -3 -1 -0 0 0 0 0 1 1 1 1 1 2 3 4 4 5 4 5 4 5 4 5 5 5 5 6 6 6 6 6 4 5 5 5 5 5 5 5 5 7
-10 -9 -9 -8 -6 -4 -1 -2 -1 -0 -1 -0 0 -0 1 1 1 1 2 3 4 4 5 4 5 5 5 4 5 5 5 5 5 5 5 5 6 5 5 5 5 5 5 5 6 5 3
-10 -9 -9 -9 -6 -3 -2 -3 -1 -1 -1 -0 0 -1 1 1 0 1 2 3 4 4 5 5 5 5 5 5 5 5 5 5 5 5 5 5 5 5 4 4 4 4 5 5 5 5 4
-10 -9 -9 -8 -6 -3 -2 -3 -2 -1 -1 -1 -0 -0 0 1 1 2 2 3 3 4 4 5 5 5 5 5 5 5 5 5 5 5 5 5 5 5 6 6 6 4 5 5 4 4 5
-10 -9 -8 -7 -6 -4 -5 -3 -2 -2 -2 -1 -1 -0 0 0 1 2 2 3 3 4 4 5 5 5 5 5 5 5 5 5 5 5 5 4 4 5 5 5 5 5 5 5 4 5 4
-10 -9 -9 -8 -6 -5 -5 -4 -2 -2 -2 -1 -1 -0 -0 1 1 1 2 3 3 4 4 5 5 5 5 5 5 5 5 5 5 5 4 4 4 5 5 5 5 5 5 5 4 4 4
-9 -8 -9 -7 -6 -4 -5 -3 -2 -2 -1 -1 -1 -0 1 1 1 1 2 3 3 4 4 4 5 5 5 5 5 5 5 5 4 4 4 4 4 4 3 4 4 3 6 5 6 6 6
-9 -8 -6 -6 -5 -5 -3 -2 -2 -1 -1 -1 -1 -0 0 1 1 2 2 3 3 4 4 4 4 4 4 4 4 4 4 4 4 4 4 4 4 3 3 3 2 5 6 6 5 6 5
-8 -7 -5 -5 -5 -3 -2 -2 -2 -1 -1 -1 -1 -0 0 1 2 2 2 3 3 3 3 4 4 4 4 3 4 3 3 3 3 3 3 3 3 3 3 2 4 5 5 5 5 5 5
-6 -5 -5 -4 -3 -3 -2 -2 -2 -1 -1 -1 -1 -0 0 1 2 2 2 3 3 3 3 3 4 3 3 3 3 3 3 3 3 3 3 3 3 2 2 2 2 4 5 4 4 3 3
-5 -5 -4 -3 -3 -3 -2 -2 -1 -1 -1 -1 -1 -0 0 1 1 2 2 3 3 3 3 3 4 3 3 3 3 3 3 3 3 3 3 3 3 2 2 1 3 4 3 3 2 2 2
-4 -4 -3 -3 -3 -3 -2 -1 -1 -1 -1 -1 -1 -0 0 0 1 2 2 3 3 3 3 3 3 3 3 3 2 3 2 2 2 3 3 3 3 2 2 1 2 3 2 2 1 1 1
-3 -3 -3 -2 -2 -2 -1 -1 -1 -1 -1 -1 -1 -0 0 1 1 1 2 3 3 3 3 3 3 4 3 3 2 2 2 2 2 2 2 2 2 3 2 2 3 2 1 1 0 1 1

GFSGBSN_700_temp_027.txt.gz
Temp
5 5 4 4 4 4 5 5 5 5 5 5 6 6 6 6 6 6 6 6 5 6 5 5 5 5 5 5 5 5 5 5 5 5 5 4 5 6 7 7 8 8 8 8 8 8 8
4 4 4 4 4 4 4 5 5 5 5 5 5 6 6 6 6 6 6 6 5 5 5 5 5 5 5 5 4 5 5 5 5 5 5 5 5 6 7 7 8 8 8 8 8 8 7
4 4 4 4 4 4 4 4 4 5 5 5 5 5 5 6 5 6 6 5 5 5 5 5 5 5 5 5 5 5 5 5 5 5 4 5 5 5 6 7 7 7 8 8 8 7 7
3 3 4 4 4 4 4 4 4 4 4 5 5 5 5 5 5 5 5 5 5 5 4 5 5 5 5 5 5 5 5 5 6 6 5 5 5 5 5 7 7 8 8 9 8 8 8
3 3 3 4 4 4 4 3 3 4 4 4 4 5 5 5 5 5 5 4 4 4 5 5 5 5 4 5 5 5 5 5 6 6 6 6 6 6 6 6 8 8 9 9 8 8 8
3 3 3 3 3 4 3 3 3 3 4 4 4 5 5 5 4 5 5 4 4 4 5 4 4 4 5 5 5 5 5 6 6 6 6 6 6 7 7 8 8 9 10 9 9 9 9
3 3 3 3 4 3 3 3 3 3 3 4 4 4 4 4 4 4 4 4 3 4 4 4 4 4 5 5 5 5 5 6 6 5 6 6 6 7 8 8 8 9 9 10 9 8 9
2 3 3 3 3 3 3 2 2 2 3 3 4 4 4 4 4 4 4 4 2 3 3 4 5 5 5 5 5 5 6 6 6 5 6 6 6 7 7 7 8 9 10 10 8 8 8
2 2 3 3 3 3 3 3 2 2 3 3 3 4 4 3 4 4 3 3 3 3 3 4 5 5 5 5 6 6 6 7 6 6 6 6 7 7 7 8 8 9 10 9 9 8 8
2 2 2 3 3 4 3 3 2 2 2 3 3 4 4 3 3 3 3 3 3 3 3 5 5 5 5 5 6 6 6 7 6 6 6 4 6 7 8 8 9 9 9 9 9 8 9
2 2 2 2 3 3 3 3 2 1 1 2 3 3 3 3 3 3 3 3 3 3 6 6 5 5 5 5 6 5 6 6 6 7 7 5 7 8 8 8 8 6 8 8 9 9 8
1 2 2 2 3 3 3 3 2 1 1 2 3 3 3 3 3 3 3 3 3 3 6 6 5 5 5 5 6 6 6 6 6 7 7 4 7 7 8 8 8 8 7 8 8 9 10
1 1 2 2 3 3 4 3 1 0 1 2 2 2 2 2 2 2 2 2 3 5 6 6 6 6 6 6 6 6 6 6 7 7 7 7 7 7 7 7 7 7 8 9 9 9 10
-0 1 2 2 2 3 3 2 1 -0 0 1 2 2 2 2 2 2 2 2 4 6 6 6 6 6 6 6 6 6 7 7 7 7 8 8 7 7 7 7 8 8 9 9 8 9 11
-5 -1 1 1 2 2 3 2 1 -1 -0 1 1 2 2 2 1 2 2 2 4 6 6 6 6 6 6 6 6 6 7 7 7 7 7 9 8 7 7 6 7 8 7 8 8 7 7
-9 -7 -3 -1 1 2 2 1 -0 -1 -1 0 1 1 2 2 1 1 1 3 5 6 6 6 6 6 7 6 6 6 7 7 6 6 7 8 8 6 6 6 6 6 7 7 7 7 8
-10 -9 -9 -8 -5 -1 1 -0 -1 -2 -1 -0 0 0 2 1 1 1 1 3 5 5 5 6 6 6 7 7 7 7 7 6 6 6 7 7 7 6 5 6 8 6 6 6 7 7 8
-10 -9 -8 -9 -8 -7 -2 -2 -2 -1 -1 -1 -0 -1 1 1 0 1 2 3 4 5 4 5 6 6 6 7 6 7 7 7 6 6 6 6 7 7 7 6 6 6 7 7 7 8 6
-10 -9 -9 -9 -8 -8 -8 -4 -2 -2 -1 -1 -2 -1 0 1 -0 1 2 3 4 5 4 5 5 6 6 6 6 6 6 6 6 6 6 5 6 7 6 6 5 6 6 6 6 5 6
-10 -9 -9 -9 -9 -9 -8 -4 -2 -2 -2 -2 -2 -1 0 0 0 2 2 3 3 4 5 5 5 5 5 6 5 6 5 5 5 5 5 5 6 6 7 8 7 6 6 6 6 5 6
-10 -9 -9 -10 -9 -9 -8 -5 -3 -2 -3 -3 -2 -0 0 -1 0 2 2 3 4 4 4 4 5 5 5 6 5 5 5 5 5 5 5 5 5 6 6 5 6 6 6 6 6 6 7
-10 -10 -9 -9 -9 -9 -6 -5 -3 -3 -4 -3 -1 0 0 0 1 2 3 3 4 5 4 4 5 5 6 6 5 6 5 4 4 5 5 4 5 4 4 4 5 5 5 6 6 6 6
-10 -10 -9 -9 -9 -8 -8 -5 -4 -4 -3 -2 -1 0 1 1 1 1 3 3 4 5 4 5 5 5 5 5 5 5 5 5 4 5 4 3 3 3 4 4 4 4 6 5 6 6 6
-10 -10 -10 -9 -8 -7 -8 -5 -3 -4 -2 -2 -1 -1 -0 0 1 1 3 3 4 5 4 4 5 5 5 5 5 5 5 5 4 4 4 4 4 3 4 3 2 6 6 6 5 6 6
-10 -10 -9 -9 -9 -8 -6 -4 -5 -4 -2 -1 -1 -0 -0 1 1 2 3 3 4 4 3 4 4 5 5 4 4 4 4 4 4 4 4 4 2 3 3 4 5 5 5 5 4 5 4
-10 -10 -9 -9 -8 -6 -5 -4 -4 -3 -3 -1 -1 -1 -1 1 1 2 2 3 3 2 3 4 4 4 4 4 3 3 4 4 3 2 3 3 3 2 2 2 1 4 5 5 4 4 2
-9 -9 -9 -7 -6 -5 -5 -4 -3 -3 -3 -2 -1 -0 -0 1 1 1 2 2 2 2 3 4 4 4 4 4 3 3 4 3 3 3 3 2 2 2 1 1 3 3 3 3 3 3 2
-9 -8 -8 -5 -5 -5 -3 -3 -2 -3 -2 -1 -0 0 1 1 1 1 1 1 2 2 3 3 3 3 4 3 3 3 3 3 3 3 3 3 3 2 1 1 2 3 2 2 1 2 1
-6 -6 -6 -5 -4 -4 -3 -2 -2 -2 -2 -1 -1 -0 0 1 1 2 2 2 1 2 3 3 3 4 4 3 3 2 3 3 2 3 2 2 2 2 2 3 2 2 1 1 1 1 1

GFSGBSN_700_temp_030.txt.gz
Temp
4 4 4 4 4 5 5 5 5 5 6 6 6 6 6 6 6 6 6 6 6 6 6 6 6 6 6 6 6 5 5 6 6 6 6 5 5 6 7 8 8 8 9 9 9 9 9
3 4 4 4 4 4 4 4 4 5 5 5 5 5 5 6 6 6 6 6 6 6 6 6 6 6 6 5 4 5 5 5 5 5 4 5 6 6 7 8 8 8 9 9 9 8 8
3 3 3 4 4 4 4 4 4 4 4 5 5 5 5 5 5 6 6 5 6 6 5 5 6 6 6 5 4 4 5 5 6 5 4 5 6 6 7 8 8 8 8 9 8 8 8
3 3 3 3 3 4 4 4 4 3 4 4 4 5 5 5 5 6 5 5 5 5 5 5 5 5 5 5 5 5 4 5 5 5 5 5 5 5 6 7 7 8 8 8 8 8 8
2 2 3 3 3 3 4 4 3 3 3 3 4 4 5 5 5 5 5 5 5 5 5 5 5 5 5 5 5 5 5 5 5 6 6 5 6 6 6 6 7 8 8 8 8 8 8
2 2 2 3 3 3 4 3 3 3 3 3 4 4 4 5 5 5 5 5 4 5 5 5 5 5 5 5 5 5 5 6 6 6 6 6 6 6 7 7 8 8 8 9 9 9 9
2 2 3 3 3 3 3 3 3 3 3 2 3 4 4 4 5 5 5 4 4 4 5 5 4 5 5 5 5 6 6 6 5 6 6 6 6 6 6 7 8 8 9 9 9 10 9
2 2 2 3 3 3 3 3 3 3 2 2 3 3 4 4 4 4 4 3 1 3 4 5 5 5 5 5 5 6 6 6 6 6 6 6 7 7 5 7 7 8 9 10 9 9 9
1 2 2 2 2 3 3 3 3 3 3 2 2 3 4 4 4 4 4 3 4 4 4 4 5 5 5 5 5 6 6 6 6 5 4 4 5 6 6 7 8 9 9 9 9 9 9
1 1 2 2 2 2 2 3 3 3 3 2 2 2 3 3 4 4 3 2 3 3 3 5 5 5 5 5 6 7 7 7 6 6 5 4 5 6 7 8 8 8 8 9 9 9 9
1 1 1 2 2 2 2 2 3 3 3 2 2 2 3 3 4 3 1 2 3 3 5 7 5 5 5 5 7 6 6 7 7 7 6 5 6 6 7 7 8 8 8 8 9 10 8
1 1 1 1 2 2 2 2 3 3 2 2 1 2 3 3 3 2 4 2 2 2 5 6 6 6 6 6 6 7 6 6 7 7 7 7 6 5 5 7 8 8 8 9 9 9 6
1 1 1 1 2 2 2 2 3 3 2 2 1 1 2 3 2 2 2 2 2 4 7 7 7 6 6 6 6 7 6 6 7 7 7 7 7 7 7 8 8 8 9 9 5 5 7
0 1 1 1 1 1 2 2 2 3 2 1 0 1 2 2 2 3 1 1 3 5 6 7 7 7 6 7 7 7 7 7 7 7 8 7 8 8 8 8 7 8 9 7 4 2 8
-3 -1 0 0 1 1 1 2 2 2 2 -0 -1 1 2 2 2 2 1 1 3 6 7 7 7 7 7 7 7 7 7 7 7 7 7 6 5 5 7 8 7 8 8 8 8 7 8
-9 -6 -3 -1 0 1 1 2 2 2 1 -2 -1 0 2 2 2 1 1 1 3 6 7 7 7 7 7 7 7 7 7 7 8 8 7 6 2 6 6 7 8 8 8 8 8 7 7
-11 -11 -10 -5 -2 -0 1 1 1 1 -0 -3 -1 -1 2 1 1 1 0 1 4 5 6 7 7 7 8 8 7 8 8 8 8 7 7 7 4 7 6 7 8 7 7 7 8 8 7
-11 -11 -11 -10 -9 -3 -1 0 1 0 -2 -2 -1 -1 1 0 0 1 -0 2 4 5 6 6 7 8 7 8 8 8 8 8 7 7 7 7 7 7 7 7 7 7 7 8 7 7 7
-11 -11 -11 -10 -9 -9 -8 -4 -1 -2 -3 -2 -1 -1 -1 0 0 0 0 1 3 4 6 5 6 7 7 7 8 7 8 7 6 7 6 7 6 7 7 7 7 7 7 7 7 7 6
-11 -11 -11 -11 -10 -9 -9 -8 -6 -3 -4 -2 -2 -2 -1 0 0 -0 1 2 3 5 6 5 6 6 7 7 7 7 7 6 6 6 6 6 6 7 7 8 7 7 7 7 7 6 6
-12 -12 -11 -10 -9 -8 -8 -8 -7 -5 -3 -3 -3 -1 -0 0 0 -0 1 2 3 4 5 6 6 6 6 6 7 6 6 6 6 5 5 5 5 6 7 7 6 6 7 7 7 7 6
-11 -11 -10 -10 -8 -8 -8 -8 -7 -5 -3 -4 -3 -2 -1 -0 -0 0 2 2 4 5 5 5 6 6 6 6 6 6 6 5 5 5 5 5 5 5 5 6 6 5 6 6 7 7 7
-11 -10 -10 -9 -8 -8 -8 -8 -8 -5 -3 -4 -2 -1 -0 0 1 1 2 2 4 5 5 5 5 6 6 6 6 5 5 5 5 5 5 4 5 4 4 4 5 5 6 6 6 6 7
-10 -9 -9 -9 -9 -8 -8 -8 -8 -7 -4 -4 -3 -1 -1 -0 1 1 2 3 4 5 5 5 5 6 6 6 5 5 5 5 5 4 4 4 4 4 4 4 3 6 6 6 6 6 6
-10 -10 -9 -9 -9 -8 -8 -7 -7 -6 -4 -4 -2 -1 -1 -1 2 1 2 3 4 5 5 5 5 5 6 5 5 5 4 4 4 4 4 3 3 3 3 3 4 5 6 5 5 5 5
-10 -10 -10 -10 -9 -8 -8 -7 -8 -6 -5 -3 -1 -1 -1 -1 1 2 3 3 4 5 3 4 4 4 5 4 4 4 4 4 4 2 3 3 2 2 2 2 2 4 5 5 5 4 2
-9 -9 -9 -9 -9 -9 -9 -7 -7 -6 -5 -3 -1 -1 -1 -0 1 2 3 3 4 4 2 4 4 4 4 4 4 3 4 4 4 3 2 2 2 2 2 2 3 4 3 4 3 2 2
-10 -9 -10 -10 -9 -9 -9 -7 -7 -5 -3 -2 -0 -1 -1 -1 1 1 3 3 3 2 3 4 4 4 4 4 3 3 3 4 4 4 3 3 3 2 1 1 1 3 3 2 2 2 2
-10 -10 -10 -9 -9 -8 -9 -6 -6 -4 -3 -2 -1 -1 0 1 0 2 2 3 3 2 3 3 4 4 4 4 3 3 3 3 3 3 3 3 3 2 3 3 2 2 2 1 1 2 1

GFSGBSN_700_temp_033.txt.gz
Temp
4 4 4 5 5 5 5 5 5 5 5 6 6 6 6 6 6 6 6 6 6 7 7 7 7 6 6 6 6 6 6 6 6 6 6 5 5 5 6 7 7 8 8 8 8 8 4
3 3 4 4 4 5 5 5 5 5 5 5 5 5 6 6 6 6 6 6 6 6 7 6 6 6 6 5 5 6 5 5 6 6 5 5 6 6 6 7 7 8 8 8 9 8 7
2 3 3 3 4 4 4 4 5 5 5 5 5 5 5 5 5 5 6 6 6 6 6 6 6 6 6 5 6 6 5 5 5 5 5 5 5 6 6 7 7 8 8 8 8 8 8
2 2 2 3 3 3 4 4 4 4 4 4 4 4 5 5 5 5 5 5 6 6 6 6 6 6 6 6 6 6 6 6 5 6 5 5 5 6 6 6 7 8 8 8 8 8 7
2 2 2 2 3 3 3 4 4 4 4 4 4 4 4 4 5 5 5 5 5 6 5 6 6 6 6 6 6 5 5 5 5 6 6 5 5 6 6 6 7 8 8 8 8 8 8
2 2 2 2 2 3 3 4 4 3 4 4 4 3 4 4 4 5 5 5 5 5 5 5 5 6 6 6 6 5 5 5 5 6 6 5 5 6 6 6 6 7 8 8 8 9 8
2 2 2 2 2 2 3 3 3 3 3 3 3 4 3 4 4 5 5 4 4 5 6 5 5 5 5 5 5 5 5 6 6 5 5 5 4 5 6 6 7 7 8 8 8 9 9
1 2 2 2 2 2 2 3 3 3 3 3 3 3 3 3 4 4 4 4 5 6 6 6 6 5 5 5 5 6 5 6 5 5 5 6 5 6 6 6 6 7 7 8 8 9 9
1 1 2 2 2 2 2 2 2 3 3 3 3 3 3 3 3 4 4 3 3 3 4 6 6 6 5 5 6 6 6 6 6 6 5 5 6 5 6 6 6 7 7 8 9 9 9
1 1 1 2 2 2 2 2 2 2 2 3 3 3 3 2 3 3 3 3 3 3 4 6 6 6 5 5 5 6 6 6 6 6 6 5 5 6 6 6 7 7 7 8 8 9 9
1 1 1 1 1 2 2 2 2 2 2 2 3 3 2 2 3 2 3 3 3 3 1 6 6 6 6 6 6 6 6 6 6 6 6 5 5 5 6 6 7 8 8 8 8 8 8
1 1 1 1 1 1 2 2 2 2 2 2 2 3 2 2 2 1 2 3 3 2 2 6 6 5 5 5 6 6 6 7 7 6 6 7 6 6 7 7 7 8 8 8 8 8 6
1 1 1 1 1 1 1 2 2 2 2 2 2 3 2 1 2 0 2 1 1 2 6 6 6 6 6 6 6 6 7 6 6 7 6 7 6 6 7 7 7 7 8 7 5 4 3
-5 1 1 1 0 1 1 1 1 1 2 2 1 2 2 1 1 1 1 1 1 4 7 7 7 6 6 6 6 6 6 6 6 7 7 7 6 5 6 6 7 8 8 7 3 1 3
-10 -9 -1 0 0 1 1 1 1 1 1 1 0 1 1 1 0 1 1 0 1 5 7 7 7 6 6 6 7 7 7 6 6 7 6 6 6 7 6 7 7 7 7 8 7 4 3
-11 -11 -10 -4 -1 0 0 1 1 1 1 1 -0 0 2 0 -0 1 -0 -1 2 6 6 6 7 7 7 7 7 7 7 7 7 7 7 7 6 5 5 6 7 7 7 8 8 4 4
-11 -11 -12 -11 -6 -2 -1 1 1 1 1 0 -1 -2 0 -1 -1 -0 -1 -1 3 6 5 5 7 7 7 7 7 7 7 7 7 7 7 7 7 5 5 6 7 7 7 7 7 7 2
-11 -12 -11 -12 -12 -9 -4 -1 0 0 0 -1 -2 -3 -2 -1 -2 -0 -1 -1 4 6 6 5 6 7 7 7 7 7 7 7 8 7 7 7 7 5 6 7 7 7 7 7 7 7 7
-12 -12 -12 -12 -12 -11 -10 -5 -3 -1 -0 -1 -4 -4 -3 -2 -1 0 -0 1 3 5 5 5 6 6 7 7 7 7 7 7 7 7 7 7 6 6 6 7 7 7 7 7 7 7 7
-12 -12 -12 -12 -11 -10 -11 -10 -8 -5 -2 -3 -5 -4 -3 -2 -1 -0 0 2 3 5 5 5 5 6 7 7 7 7 7 7 7 7 6 6 6 6 6 7 7 7 7 7 7 7 6
-12 -12 -12 -12 -11 -11 -11 -11 -10 -8 -5 -5 -4 -3 -2 -2 -1 -2 -1 2 2 4 4 4 5 6 6 6 7 7 7 6 6 6 6 6 6 6 6 6 6 6 6 6 7 7 7
-12 -12 -12 -12 -11 -11 -11 -10 -9 -9 -7 -6 -4 -4 -3 -2 -2 -2 -1 2 2 4 4 5 5 6 6 6 6 7 6 6 6 6 5 5 5 5 5 5 6 5 6 6 6 7 7
-12 -12 -12 -11 -11 -11 -10 -9 -10 -8 -8 -5 -4 -3 -3 -1 -1 -1 -0 2 2 4 4 5 5 6 6 6 6 6 6 6 6 5 5 5 5 4 4 5 5 5 6 6 6 6 6
-11 -11 -11 -11 -11 -11 -11 -8 -9 -7 -7 -5 -4 -3 -2 -1 -1 1 0 2 1 3 3 5 5 6 6 6 6 6 6 5 5 5 5 4 4 4 4 4 -0 5 5 6 6 5 5
-11 -11 -11 -10 -11 -10 -10 -8 -9 -7 -7 -6 -4 -3 -2 -1 -1 -1 0 1 2 3 4 5 5 5 5 6 5 5 5 5 4 4 4 4 4 3 3 3 4 5 5 5 5 4 5
-11 -10 -10 -10 -10 -9 -9 -8 -8 -7 -7 -6 -3 -2 -1 -1 -0 0 1 1 3 3 3 4 5 5 5 5 5 5 4 4 4 4 4 3 3 3 2 3 -2 4 4 5 5 3 3
-10 -10 -10 -9 -9 -9 -8 -8 -8 -7 -7 -6 -3 -2 -1 -1 -0 -0 1 2 3 3 3 4 2 3 5 5 5 5 4 4 4 3 3 2 2 2 2 3 3 3 4 4 4 3 2
-10 -10 -10 -9 -9 -9 -8 -8 -8 -7 -7 -6 -3 -2 -2 -1 0 -0 0 3 3 2 3 3 2 3 4 4 4 4 4 4 4 4 4 3 2 2 1 1 2 3 3 3 3 2 2
-11 -10 -10 -10 -9 -9 -9 -8 -7 -8 -5 -4 -3 -3 -2 -1 -1 -0 1 2 3 3 3 3 3 3 4 5 4 4 4 4 4 3 3 3 3 3 3 3 3 2 2 2 2 2 2

GFSGBSN_700_temp_036.txt.gz
Temp
3 4 4 4 5 5 5 5 5 5 5 5 6 6 6 6 6 6 6 6 6 7 7 7 7 7 7 7 6 5 6 6 6 6 6 5 6 6 6 6 6 6 7 8 7 7 7
3 3 3 4 4 4 5 5 5 5 5 5 5 6 6 6 6 6 6 6 6 6 7 7 7 7 6 6 6 6 5 5 6 6 6 6 5 5 6 6 6 7 8 8 8 7 7
2 2 2 3 3 4 4 4 4 4 5 5 5 5 5 5 5 5 6 6 6 6 7 7 7 7 6 6 6 6 5 5 5 6 5 5 5 5 5 6 6 7 8 8 7 7 7
2 2 2 2 3 3 3 3 4 4 4 4 5 5 5 5 5 5 5 6 6 6 7 6 7 7 7 6 6 6 5 6 5 5 5 5 5 5 5 6 7 7 8 7 7 7 7
2 2 2 2 2 2 2 3 4 3 4 4 4 4 4 5 4 5 5 5 5 6 6 6 6 6 6 6 6 5 5 6 6 5 5 5 5 5 5 6 7 7 8 8 7 8 8
1 2 2 2 2 2 2 2 3 3 3 3 4 4 4 4 4 4 5 5 5 6 6 6 6 6 6 5 5 5 5 6 5 5 5 5 5 5 5 6 6 7 7 8 8 8 8
1 1 2 2 2 2 2 2 2 3 3 3 3 3 3 4 4 4 4 4 5 5 6 5 6 6 5 5 5 5 5 5 5 5 5 5 5 5 5 6 7 6 7 7 7 8 8
1 1 1 1 2 2 2 2 2 2 3 3 3 3 3 3 3 4 4 4 4 5 6 6 6 6 6 5 5 5 5 5 5 5 5 6 5 5 5 6 7 7 6 7 7 8 8
1 1 1 1 1 1 2 2 2 2 2 2 3 3 3 3 3 3 3 3 4 4 5 6 6 6 6 5 6 5 5 5 5 5 5 5 6 6 6 6 6 6 6 7 7 8 8
1 1 1 1 1 1 1 1 2 2 2 2 2 3 3 2 2 3 3 3 3 4 3 7 7 6 5 5 5 6 5 5 5 5 5 5 6 6 6 6 6 6 7 7 7 8 8
0 1 1 1 1 1 1 1 1 2 2 2 2 2 3 2 2 2 2 3 3 3 -1 6 6 5 6 6 6 6 6 5 5 6 6 6 5 5 6 6 6 6 7 7 7 8 8
-0 0 1 1 1 1 1 1 1 1 2 2 2 2 2 3 2 0 1 2 2 2 1 6 6 6 5 5 6 6 6 6 6 6 6 6 6 6 6 6 6 6 7 7 7 8 6
-2 -1 0 0 1 1 0 1 1 1 1 1 1 2 2 2 2 -0 1 1 1 0 5 5 6 6 6 5 6 6 6 6 6 6 6 6 6 6 6 7 7 7 7 6 5 3 3
-6 -6 -4 -0 0 0 0 0 1 1 1 1 1 1 2 2 1 -0 0 -0 -0 3 6 6 6 6 6 5 6 6 6 6 6 6 6 6 6 6 6 6 6 7 7 7 4 1 3
-7 -8 -9 -7 -1 -0 -0 0 0 1 1 1 0 1 1 2 -0 -1 -0 -0 0 5 6 5 6 6 5 5 6 6 6 6 6 6 6 6 6 6 6 6 6 6 7 7 7 4 4
-7 -9 -8 -10 -9 -2 -1 -0 -0 -0 0 0 0 0 1 1 -1 -1 -1 -1 -0 5 4 5 6 6 6 6 6 6 6 6 6 6 6 6 6 6 6 6 6 6 7 7 6 3 4
-7 -8 -10 -10 -10 -10 -3 -2 -1 -1 -0 -0 -1 -1 1 -0 -2 -2 -1 -2 -0 5 4 4 5 6 6 6 6 6 6 7 7 7 6 6 6 6 6 5 7 7 7 7 7 7 2
-7 -8 -9 -10 -10 -10 -10 -4 -2 -1 -2 -1 -1 -2 -2 -1 -2 -1 -1 -2 -1 4 3 4 4 5 6 7 7 7 7 7 7 7 7 7 6 6 7 7 7 6 6 7 6 6 6
-8 -8 -10 -10 -10 -11 -11 -9 -7 -5 -3 -2 -2 -4 -4 -2 -2 -2 -1 -3 0 4 3 3 4 5 6 7 7 7 7 7 7 7 7 6 6 6 6 6 6 6 6 7 7 7 7
-8 -8 -9 -10 -10 -11 -11 -12 -10 -9 -8 -5 -7 -6 -4 -3 -0 -2 -1 -1 1 4 3 3 4 5 6 6 7 7 7 7 7 6 6 7 6 6 6 6 6 6 6 6 6 6 6
-8 -8 -9 -10 -11 -11 -11 -12 -10 -8 -8 -8 -7 -5 -4 -3 -0 -3 -3 -2 1 2 3 4 4 4 5 6 6 7 7 6 7 6 6 6 6 6 6 6 6 6 6 6 6 6 6
-9 -9 -10 -11 -11 -11 -12 -12 -10 -8 -7 -8 -6 -5 -5 -2 0 -1 -3 -2 0 2 3 4 3 4 5 5 6 6 7 7 6 6 6 6 6 6 6 6 6 5 6 6 6 6 6
-8 -9 -9 -11 -11 -12 -12 -11 -10 -8 -7 -8 -6 -5 -4 -3 -1 -1 -0 -2 1 2 3 4 4 4 5 5 6 6 6 6 6 6 6 6 5 5 5 5 5 4 5 5 6 6 6
-9 -9 -10 -11 -12 -12 -12 -11 -10 -8 -7 -8 -6 -6 -4 -3 -3 -0 -1 -3 2 2 3 5 4 4 5 5 6 6 6 6 6 6 5 5 4 4 4 4 -1 5 5 5 5 5 5
-8 -9 -11 -11 -12 -12 -12 -11 -11 -9 -8 -8 -6 -5 -4 -4 -3 -2 -2 -1 1 2 2 4 4 4 4 5 5 5 5 5 5 5 5 5 5 4 3 3 4 4 4 4 5 4 4
-9 -11 -11 -11 -12 -11 -11 -11 -10 -9 -8 -8 -7 -5 -5 -3 -3 -2 -2 -1 1 1 2 3 4 3 4 5 5 5 4 4 4 4 4 4 4 4 3 3 -2 4 5 5 5 4 4
-10 -11 -11 -11 -11 -11 -11 -11 -10 -9 -8 -8 -6 -5 -4 -2 -3 -2 -1 1 -1 1 2 3 3 3 4 4 4 5 5 5 4 4 3 3 3 3 3 3 3 4 4 4 4 4 4
-11 -10 -10 -11 -11 -11 -11 -11 -10 -9 -9 -8 -6 -5 -4 -3 -2 -2 -1 0 -0 1 2 3 2 2 3 4 4 4 5 4 4 4 4 4 3 2 2 2 2 3 3 3 3 4 3
-10 -10 -9 -10 -10 -10 -11 -11 -10 -8 -9 -8 -6 -5 -3 -1 -2 -1 -1 0 1 1 1 2 3 3 3 3 4 4 5 4 4 3 3 3 3 3 3 3 3 3 2 3 3 3 3

GFSGBSN_700_temp_042.txt.gz
Temp
2 3 3 3 4 4 4 4 4 4 4 5 5 5 5 5 5 6 6 6 6 6 7 7 7 7 7 7 7 6 6 6 6 6 5 5 5 5 5 6 6 6 6 7 7 7 6
2 2 2 2 3 3 3 4 4 4 4 4 5 5 5 5 5 5 6 6 6 6 7 7 7 7 7 7 7 6 6 6 6 6 4 4 4 5 5 5 6 6 7 7 7 6 6
2 1 2 2 2 2 2 3 3 4 4 4 4 5 5 5 5 5 5 5 5 6 6 7 7 7 7 7 7 6 5 5 6 5 4 4 4 5 5 5 6 6 7 7 7 6 6
1 1 1 1 2 2 2 2 2 3 3 3 4 4 4 5 5 5 5 5 5 5 6 6 6 6 7 7 6 6 5 5 5 5 4 5 5 5 5 6 6 6 7 7 7 6 6
1 1 1 1 1 1 2 1 2 2 2 3 3 3 4 4 4 4 4 4 5 5 6 6 6 6 7 7 6 5 5 5 5 5 5 5 5 5 5 6 6 6 7 6 7 7 6
1 0 1 1 1 1 1 1 2 2 2 2 2 3 3 4 4 4 4 4 4 5 5 6 6 6 6 7 6 6 5 5 5 5 5 5 5 5 5 5 6 6 6 7 7 7 7
0 0 0 0 1 1 1 1 1 1 2 1 1 2 2 3 4 4 4 4 3 4 5 6 6 6 6 6 6 5 5 5 5 5 5 5 5 5 5 5 6 6 6 6 6 6 7
0 0 0 -0 -0 0 1 1 1 1 1 1 1 2 1 2 3 3 4 3 4 4 5 5 6 6 6 6 6 5 5 5 5 5 5 5 5 5 5 6 6 6 6 6 7 6 7
-0 0 0 0 -0 -0 0 1 1 1 1 1 1 1 1 2 2 2 2 2 3 3 3 6 6 7 6 5 6 5 5 5 5 5 5 5 5 5 5 5 6 5 6 6 6 7 7
-3 -2 -1 -0 0 -0 -0 0 0 1 1 1 1 1 1 1 2 2 1 1 2 2 2 6 7 7 6 5 6 5 5 5 5 5 5 5 5 5 5 5 6 6 6 6 6 6 6
-4 -4 -4 -2 -1 0 -0 -1 0 0 1 1 0 1 1 1 2 1 1 1 1 1 -0 6 6 6 6 6 6 5 5 5 5 5 5 5 5 5 5 6 5 6 6 6 6 7 6
-4 -4 -4 -4 -4 -1 -0 -0 -1 -0 0 0 0 0 0 1 1 1 -1 -0 0 1 -0 5 5 5 6 5 5 5 5 5 5 5 5 5 5 5 5 5 5 5 6 6 6 6 4
-4 -4 -4 -4 -5 -5 -2 -1 -1 -1 -0 0 0 0 0 1 1 -0 -2 -1 -1 -1 4 5 5 5 5 5 5 5 5 4 5 5 5 5 5 5 5 5 5 6 6 5 4 2 3
-7 -5 -4 -4 -4 -5 -5 -3 -1 -1 -1 -0 -0 -0 -0 0 0 -1 -2 -1 -2 1 4 4 4 5 5 5 5 4 5 5 5 5 5 5 5 5 5 5 6 6 6 5 4 1 3
-8 -8 -7 -5 -5 -5 -6 -5 -7 -1 -1 -1 -1 -1 -0 0 0 -1 -2 -2 -1 1 3 5 4 4 4 5 5 5 4 5 5 5 5 5 5 6 6 6 6 6 6 6 6 4 2
-8 -8 -8 -8 -6 -6 -6 -7 -8 -7 -2 -2 -1 -1 -0 -0 -1 -2 -3 -2 -1 0 3 3 3 4 5 5 4 5 5 5 5 5 5 5 6 6 6 6 6 6 6 6 5 3 4
-8 -8 -8 -8 -8 -6 -6 -7 -9 -8 -8 -4 -3 -2 -0 -1 -1 -3 -3 -3 -2 -0 2 2 3 4 5 5 5 5 5 5 5 5 6 6 6 6 6 6 6 6 6 5 5 5 1
-8 -8 -8 -8 -8 -8 -7 -8 -8 -8 -8 -9 -5 -3 -2 -1 -4 -3 -4 -4 -2 -0 2 2 2 4 4 5 5 5 5 5 6 6 6 6 6 6 6 6 6 6 6 5 6 4 4
-9 -8 -8 -8 -8 -9 -7 -8 -8 -8 -8 -9 -9 -6 -5 -3 -5 -1 -3 -4 -3 1 1 1 2 3 3 4 5 5 5 5 6 6 6 6 5 5 5 6 6 5 6 5 5 5 5
-9 -8 -8 -8 -8 -8 -8 -8 -9 -9 -8 -9 -8 -8 -6 -6 -1 -1 -2 -4 -3 0 -0 1 1 2 3 4 4 5 5 6 6 6 6 6 6 6 5 6 6 6 6 6 6 5 6
-9 -9 -8 -8 -8 -8 -8 -8 -9 -9 -8 -10 -9 -8 -6 -6 -2 -2 -3 -3 -1 0 -1 0 1 2 3 3 4 5 5 6 6 6 6 6 6 6 6 6 6 6 6 6 6 6 6
-9 -9 -8 -7 -8 -8 -8 -8 -9 -9 -9 -10 -8 -8 -7 -4 -1 -3 -5 -5 -2 1 -1 -0 -0 3 3 3 3 4 4 6 6 6 6 6 5 6 6 6 6 6 6 6 6 6 5
-9 -9 -9 -8 -8 -8 -8 -8 -9 -9 -9 -10 -8 -8 -7 -6 -4 -4 -2 -3 -2 0 -0 -1 2 2 2 4 4 3 3 4 4 5 6 6 6 6 6 6 5 5 6 6 6 6 6
-9 -9 -9 -7 -8 -8 -8 -9 -9 -9 -9 -8 -8 -8 -8 -7 -6 -1 -3 -4 -3 1 1 1 1 1 2 2 2 3 4 4 5 5 5 6 6 5 5 5 -0 5 5 5 5 5 5
-9 -9 -9 -8 -8 -8 -8 -9 -9 -9 -9 -9 -8 -8 -7 -7 -5 -5 -6 -5 -4 -1 -0 -0 1 1 0 1 1 2 3 4 4 5 5 5 6 5 5 4 5 5 4 5 4 4 4
-9 -9 -8 -8 -8 -8 -8 -9 -9 -9 -9 -9 -9 -8 -8 -6 -6 -5 -6 -5 -4 -1 -1 -0 -1 -0 0 0 0 0 2 4 4 4 5 5 5 5 4 3 -2 5 5 4 4 4 4
-8 -8 -8 -8 -8 -8 -9 -9 -9 -9 -9 -9 -9 -8 -7 -6 -5 -5 -5 -5 -5 -2 -1 -0 0 -0 -1 -1 -0 0 1 3 4 4 5 4 5 4 4 4 4 4 4 4 3 4 4
-8 -8 -8 -8 -8 -9 -9 -10 -10 -10 -10 -9 -9 -8 -8 -7 -5 -4 -5 -4 -4 -3 -1 -1 -2 -1 -1 -1 -1 -1 1 3 3 5 5 5 4 3 3 3 2 4 3 3 4 4 4
-8 -8 -8 -9 -9 -9 -9 -10 -10 -10 -10 -10 -9 -8 -8 -8 -7 -5 -5 -5 -4 -3 -1 -1 1 0 1 -1 -1 0 1 3 4 4 4 4 4 4 4 4 4 4 4 3 3 3 3

GFSGBSN_700_temp_045.txt.gz
Temp
2 2 3 3 3 3 3 3 4 4 4 5 5 5 5 5 5 5 5 5 6 6 6 6 7 7 7 7 7 6 6 6 6 6 5 5 5 5 5 5 6 6 6 7 7 6 6
2 2 2 2 2 3 3 3 3 3 4 4 4 5 5 5 5 5 5 5 5 5 6 6 6 7 7 7 7 6 6 6 6 6 5 5 5 5 5 5 6 6 7 7 7 7 6
1 1 1 2 2 2 2 3 3 3 3 3 4 4 4 5 5 5 5 5 5 5 5 6 6 6 7 6 7 6 6 5 6 5 4 4 5 5 5 5 5 6 7 7 7 6 6
1 1 1 1 1 1 2 2 2 2 3 3 3 3 4 4 4 5 5 5 5 5 5 5 6 6 7 6 6 6 5 5 5 5 4 4 4 5 5 5 6 6 7 7 7 6 6
1 1 1 1 1 1 1 1 1 1 2 2 2 3 3 3 4 4 5 5 5 5 5 5 5 6 7 7 6 5 5 5 5 4 4 5 5 5 5 5 5 6 6 7 6 6 6
1 1 1 1 1 1 1 1 1 1 1 1 2 2 3 3 3 4 4 4 4 5 5 6 5 6 6 6 6 5 4 5 5 4 5 5 5 5 5 5 5 6 6 6 6 6 6
1 1 1 1 1 0 1 1 1 1 1 1 1 1 2 2 3 3 4 4 4 4 5 6 5 5 6 6 6 5 4 4 5 5 5 5 5 5 5 5 5 6 6 6 6 6 6
-1 -0 0 1 1 0 0 0 1 1 1 1 1 1 1 2 2 2 3 3 3 3 4 5 5 6 5 5 6 5 5 4 5 5 5 5 5 5 5 5 5 6 6 6 6 6 7
-4 -4 -3 -1 -0 0 0 -0 0 1 1 1 1 1 1 1 2 2 2 2 2 3 2 6 5 6 5 5 6 5 5 4 5 5 5 5 5 5 5 5 5 6 6 6 6 6 7
-3 -3 -3 -4 -4 -3 -1 -0 -0 -0 0 0 1 1 1 1 1 2 1 2 2 1 1 5 6 6 6 6 5 5 5 5 5 5 5 5 5 5 5 5 5 5 6 6 6 6 7
-4 -3 -3 -3 -4 -4 -3 -2 -1 -0 -0 0 0 0 1 0 1 1 1 1 1 1 0 5 5 5 6 6 6 5 5 4 5 5 5 5 5 5 5 5 5 5 6 6 6 6 6
-4 -3 -3 -3 -3 -4 -4 -4 -3 -1 -0 -0 -0 -0 0 0 0 0 0 0 -0 0 -1 4 4 4 5 5 5 5 5 4 4 5 5 5 5 5 5 5 5 5 5 5 6 6 5
-4 -4 -4 -4 -3 -3 -4 -4 -4 -4 -1 -1 -0 -1 -0 -0 1 -1 -0 -2 -2 -2 3 4 4 5 4 4 4 5 5 4 4 4 4 5 5 5 5 5 5 5 5 5 5 5 5
-4 -4 -4 -4 -4 -4 -4 -4 -5 -4 -5 -3 -1 -1 -1 -0 0 -1 -1 -2 -2 -0 3 4 3 4 4 4 4 5 5 4 4 4 5 5 5 5 5 5 5 5 5 6 5 5 5
-5 -5 -6 -7 -6 -5 -5 -5 -5 -5 -5 -5 -5 -2 -1 -1 -1 -2 -2 -3 -2 -1 2 4 3 3 3 3 4 4 4 4 5 5 5 5 5 5 5 5 5 5 5 6 6 3 4
-7 -7 -7 -8 -8 -8 -8 -7 -6 -6 -6 -9 -7 -6 -2 -2 -1 -2 -2 -3 -2 -1 1 2 3 3 4 4 4 4 4 4 4 5 5 5 5 5 5 5 5 5 5 5 5 4 4
-8 -8 -8 -8 -8 -8 -8 -9 -9 -7 -7 -9 -8 -8 -4 -3 -3 -4 -3 -4 -2 -1 0 1 1 3 3 4 4 4 4 5 5 5 5 5 5 5 5 5 6 5 5 5 5 5 5
-8 -8 -8 -8 -8 -8 -8 -8 -9 -8 -8 -8 -8 -7 -7 -7 -6 -5 -2 -2 -2 -1 -0 1 1 2 3 4 4 4 5 5 5 5 5 5 5 5 5 6 6 6 6 5 5 4 4
-9 -8 -8 -8 -8 -8 -8 -8 -8 -9 -9 -8 -8 -7 -8 -7 -6 -4 -1 -2 -2 -1 -0 1 1 1 2 3 3 4 5 5 5 5 5 5 5 5 5 5 5 5 6 6 6 5 5
-9 -9 -9 -9 -9 -8 -8 -8 -8 -8 -9 -9 -9 -9 -8 -7 -5 -3 -5 -5 -5 -2 -0 -0 1 1 2 3 3 4 5 5 5 5 5 5 5 5 5 5 5 6 6 6 5 5 5
-9 -9 -9 -9 -9 -8 -8 -8 -8 -8 -9 -9 -9 -9 -8 -7 -7 -4 -5 -4 -3 -3 -1 -1 0 1 1 2 2 4 5 5 5 5 5 5 5 5 6 6 6 6 6 6 6 6 5
-9 -9 -9 -9 -9 -8 -8 -8 -8 -8 -10 -9 -9 -8 -8 -5 -3 -7 -6 -6 -3 -2 -0 0 0 1 2 2 3 3 3 3 4 5 5 5 5 5 5 5 5 6 6 6 6 6 5
-9 -9 -9 -9 -9 -9 -8 -8 -8 -8 -10 -9 -8 -7 -7 -6 -6 -7 -7 -6 -5 -3 -1 -0 1 2 2 3 3 2 2 3 2 3 4 5 5 5 5 5 5 4 6 6 6 6 6
-9 -9 -9 -9 -9 -9 -8 -8 -8 -8 -9 -8 -8 -8 -8 -7 -7 -3 -6 -6 -6 -2 -0 -1 -0 1 1 2 1 2 2 2 3 3 3 4 4 4 5 4 2 6 6 6 5 5 5
-9 -9 -9 -9 -9 -9 -8 -8 -8 -8 -9 -9 -8 -8 -8 -8 -7 -5 -6 -7 -6 -5 -2 -2 -1 0 0 1 1 1 2 2 3 3 4 4 4 4 4 3 5 5 5 5 5 5 5
-9 -9 -9 -9 -9 -9 -8 -8 -8 -8 -9 -9 -8 -9 -8 -8 -7 -6 -6 -6 -6 -5 -4 -3 -2 -2 -1 -1 -1 -1 1 1 3 3 4 4 4 4 4 4 2 5 5 5 5 4 5
-9 -9 -9 -9 -9 -8 -8 -8 -8 -8 -9 -9 -9 -9 -8 -8 -7 -7 -6 -6 -6 -5 -4 -3 -2 -2 -1 -2 -2 -1 -0 1 2 3 4 4 3 3 4 4 5 5 5 4 4 5 4
-9 -9 -9 -9 -8 -8 -8 -8 -8 -8 -9 -10 -9 -8 -9 -8 -7 -7 -6 -6 -6 -5 -4 -4 -4 -2 -1 -2 -3 -1 -0 1 2 2 3 4 3 3 4 3 3 5 5 4 5 4 3
-9 -9 -8 -8 -8 -8 -8 -8 -8 -9 -10 -10 -10 -9 -9 -8 -7 -6 -6 -6 -6 -5 -4 -3 -1 -0 -0 -2 -2 -1 -0 1 1 1 2 3 4 5 5 5 5 5 5 5 4 4 3

GFSGBSN_700_temp_048.txt.gz
Temp
2 2 2 2 2 2 3 3 3 3 4 4 5 5 5 5 5 5 6 6 6 6 6 6 6 7 7 7 7 7 7 6 6 6 6 6 5 5 5 5 6 6 6 6 7 6 6
2 2 1 2 2 2 2 2 2 3 3 3 4 4 5 5 5 5 5 6 6 6 6 6 6 6 7 6 7 7 6 6 6 6 5 5 5 5 5 5 6 6 6 7 6 6 6
2 2 2 1 1 2 2 2 2 2 2 2 3 3 4 5 5 5 5 5 5 6 6 6 6 6 6 6 6 6 6 6 5 5 5 5 5 5 5 5 6 6 6 6 7 6 6
2 2 2 2 1 1 1 2 1 1 2 2 2 2 3 4 4 5 5 5 5 5 6 6 6 6 7 6 6 6 6 5 5 5 5 4 5 5 5 5 6 6 7 8 7 7 7
2 2 2 2 2 2 1 1 1 1 1 1 2 2 2 3 3 4 4 5 5 5 5 5 6 6 6 7 6 6 5 5 5 4 4 4 5 5 5 5 6 6 8 8 7 7 6
1 1 1 2 1 1 1 1 1 1 1 1 1 1 2 2 2 3 3 4 4 5 5 5 5 5 6 6 6 5 5 5 4 4 4 4 4 5 5 6 7 8 7 7 8 7 7
-1 -1 -0 0 1 1 1 1 1 1 1 1 1 1 1 1 2 2 3 3 3 4 5 5 5 6 6 6 6 5 5 4 4 4 4 5 5 6 6 6 6 6 7 8 7 6 6
-2 -2 -2 -2 -2 -1 -0 0 0 1 1 1 1 1 1 1 1 2 2 2 3 3 4 4 5 6 6 5 5 5 5 4 4 4 4 5 5 5 5 5 5 5 7 7 6 7 7
-2 -2 -2 -2 -3 -3 -3 -2 -1 -0 0 1 1 0 0 1 1 1 1 1 2 2 2 5 5 5 6 5 5 5 5 4 4 4 4 5 6 5 5 5 5 5 7 7 7 6 7
-2 -2 -2 -2 -2 -3 -3 -3 -3 -2 -1 -0 0 0 0 0 0 1 1 1 2 1 1 3 6 5 5 5 5 5 5 4 4 5 5 5 5 5 5 5 5 6 6 6 6 7 8
-3 -3 -2 -2 -2 -2 -3 -3 -4 -3 -3 -2 -0 -0 -0 -0 -0 1 1 1 1 1 2 4 4 5 5 6 5 5 5 4 4 4 4 5 5 5 5 5 5 6 5 5 6 7 7
-3 -3 -3 -3 -3 -3 -2 -3 -4 -4 -4 -2 -2 -1 -1 -1 -0 -0 0 0 0 -0 2 3 4 4 5 5 5 5 5 4 4 4 5 6 5 5 5 5 5 5 5 5 5 6 7
-4 -4 -4 -4 -4 -4 -3 -3 -3 -4 -4 -4 -2 -2 -2 -1 -1 -1 -1 -1 -2 0 3 3 3 4 4 5 4 5 4 4 4 4 5 5 5 4 5 5 5 5 6 7 7 7 8
-4 -4 -4 -4 -4 -4 -4 -4 -4 -4 -4 -4 -5 -3 -3 -2 -2 -2 -3 -2 -1 2 2 3 3 3 3 3 3 3 4 4 4 5 6 5 6 5 5 5 6 5 6 7 6 7 9
-4 -4 -4 -5 -5 -4 -4 -4 -4 -4 -5 -5 -6 -7 -3 -3 -4 -4 -4 -3 -0 1 1 2 2 2 2 2 4 4 4 5 5 5 6 6 6 5 6 5 5 5 5 6 6 5 6
-5 -5 -5 -6 -6 -5 -5 -5 -5 -6 -7 -6 -7 -8 -6 -3 -4 -5 -4 -3 -1 0 1 2 3 3 3 3 3 4 4 4 5 4 5 5 6 5 5 5 5 5 5 6 6 6 7
-7 -7 -7 -8 -7 -7 -6 -7 -8 -8 -9 -8 -8 -9 -5 -4 -6 -6 -5 -4 -2 -1 0 1 2 3 3 2 3 3 4 4 4 4 5 5 6 4 5 4 6 5 5 5 6 6 7
-6 -6 -7 -7 -8 -8 -7 -8 -8 -8 -8 -9 -9 -8 -7 -8 -8 -6 -6 -5 -3 -2 -1 1 1 1 3 2 3 3 4 4 5 4 4 4 5 5 5 5 6 6 6 6 6 7 6
-6 -7 -7 -7 -8 -8 -8 -8 -8 -8 -8 -8 -8 -9 -8 -8 -8 -6 -2 -6 -4 -2 -1 -1 0 2 2 2 3 3 4 4 5 5 4 4 4 5 5 5 5 5 5 6 5 6 6
-7 -7 -8 -8 -8 -8 -8 -8 -8 -8 -8 -8 -9 -8 -8 -8 -7 -5 -1 -6 -5 -4 -2 -1 -0 1 2 2 3 4 4 4 4 5 5 5 5 5 6 6 6 5 5 5 5 5 6
-8 -8 -9 -9 -8 -8 -8 -8 -8 -8 -8 -8 -9 -8 -7 -8 -7 -7 -4 -4 -5 -4 -3 -2 -1 0 1 2 2 3 4 4 4 5 5 4 5 5 5 6 6 6 6 6 5 6 6
-7 -8 -8 -8 -9 -9 -8 -8 -8 -9 -8 -8 -9 -8 -8 -7 -6 -7 -6 -5 -4 -4 -3 -3 -1 -1 1 1 2 2 3 3 3 4 4 4 5 5 5 5 5 5 6 6 5 6 6
-7 -8 -9 -8 -9 -9 -9 -9 -9 -9 -8 -9 -8 -8 -8 -7 -7 -8 -6 -5 -5 -4 -3 -3 -2 -1 0 3 2 1 2 2 1 2 3 4 4 4 5 5 4 4 5 5 5 6 6
-9 -9 -9 -8 -9 -9 -9 -9 -9 -9 -8 -8 -7 -7 -8 -7 -7 -6 -6 -6 -5 -4 -4 -3 -3 -2 -1 1 2 0 -1 -1 1 2 2 2 4 4 5 4 2 6 6 6 6 6 6
-9 -9 -8 -9 -9 -9 -9 -9 -9 -9 -8 -8 -7 -7 -8 -7 -7 -7 -7 -7 -6 -5 -4 -4 -3 -2 -2 0 0 -1 -0 0 1 2 2 2 2 3 3 3 5 5 6 6 6 6 6
-10 -9 -9 -9 -10 -9 -9 -9 -10 -9 -8 -8 -8 -8 -7 -7 -7 -7 -7 -6 -6 -5 -5 -4 -4 -3 -1 -1 -2 -1 1 1 1 2 3 3 3 2 3 4 3 5 5 6 6 6 5
-9 -9 -9 -9 -9 -9 -9 -9 -9 -8 -8 -8 -8 -8 -8 -8 -7 -7 -7 -6 -7 -6 -4 -5 -4 -3 -3 -3 -2 -1 -0 1 0 1 2 3 3 1 2 3 5 5 5 5 5 6 5
-9 -9 -9 -9 -9 -9 -9 -9 -8 -8 -8 -8 -8 -8 -8 -8 -8 -7 -7 -7 -6 -6 -5 -5 -4 -3 -3 -3 -3 -2 -1 0 1 1 2 3 3 2 2 2 3 5 5 5 6 5 5
-9 -9 -9 -9 -9 -9 -9 -8 -8 -8 -8 -8 -9 -9 -9 -8 -7 -7 -7 -6 -6 -6 -5 -5 -1 -2 -2 -3 -3 -2 -1 0 1 1 2 1 2 3 4 4 5 5 6 5 5 5 5

GFSGBSN_700_temp_051.txt.gz
Temp
2 2 2 2 2 2 3 3 3 3 3 3 3 4 4 5 5 5 6 5 5 6 6 6 6 7 7 7 7 8 7 7 7 6 6 5 5 6 7 7 7 7 8 8 7 7 6
2 2 2 2 2 2 2 2 2 2 3 3 3 3 3 4 4 4 5 5 6 6 6 6 6 6 6 7 7 7 7 7 7 6 6 4 5 6 6 7 7 7 7 7 7 7 6
2 2 2 2 2 2 2 2 2 2 2 2 2 3 3 3 4 4 4 5 5 6 6 6 6 6 6 7 7 7 7 7 6 6 4 4 4 5 6 6 7 7 7 8 7 7 7
2 2 2 2 2 2 2 2 2 2 2 2 2 2 2 3 3 3 4 4 4 5 5 5 5 5 7 7 6 7 6 6 6 6 6 4 5 5 5 6 6 7 8 9 5 8 8
1 1 1 2 2 2 2 2 2 2 2 2 2 2 2 2 2 3 3 4 4 4 5 5 5 5 7 7 6 6 6 6 6 5 5 5 5 5 6 6 7 8 9 9 8 8 8
-0 -0 0 0 1 1 1 1 2 2 2 2 2 2 2 2 2 2 2 3 3 4 4 4 4 4 6 6 6 6 6 5 5 5 5 4 4 5 6 7 9 10 9 9 9 8 8
-1 -1 -1 -1 -1 -1 -0 0 1 1 2 2 1 1 1 1 1 1 2 2 2 3 3 4 2 5 5 5 6 6 5 5 4 4 4 5 5 7 8 8 8 8 9 10 9 8 8
-2 -2 -2 -2 -2 -2 -2 -2 -1 -0 0 1 1 1 1 1 1 1 1 1 1 2 3 4 4 5 5 5 6 4 5 5 4 5 5 6 6 7 7 6 6 7 8 9 8 8 8
-2 -2 -1 -1 -2 -2 -2 -2 -2 -2 -2 -1 1 1 1 1 1 1 1 1 1 1 2 5 5 5 5 4 6 4 4 4 5 5 6 7 7 7 6 6 7 7 8 8 8 7 8
-2 -2 -2 -1 -1 -1 -1 -2 -2 -3 -3 -2 -1 -0 -0 0 0 0 1 0 1 1 1 3 5 6 5 5 4 5 4 5 5 6 6 6 7 6 6 7 7 8 8 7 8 8 9
-3 -3 -3 -3 -2 -2 -2 -1 -2 -3 -3 -3 -3 -2 -1 -1 -0 -0 -1 0 0 0 3 5 3 3 5 4 5 5 4 4 5 6 6 7 7 6 6 7 7 8 7 7 7 8 9
-3 -3 -3 -3 -3 -3 -3 -3 -2 -3 -4 -4 -4 -4 -1 -2 -2 -1 -0 -1 -1 -0 3 4 3 4 3 2 4 6 4 4 5 6 6 7 7 6 7 7 7 7 6 7 7 8 8
-4 -4 -4 -4 -3 -3 -3 -4 -3 -3 -4 -4 -4 -4 -4 -1 -2 -2 -2 -2 -2 1 4 5 3 3 2 3 4 5 4 4 5 5 6 6 6 6 6 6 6 6 7 7 8 8 9
-4 -4 -4 -4 -4 -4 -4 -4 -4 -4 -4 -4 -5 -5 -4 -3 -2 -3 -4 -4 -1 2 3 4 4 3 3 4 4 4 4 5 5 6 7 7 7 6 6 6 7 6 7 7 6 8 9
-5 -4 -4 -4 -4 -4 -4 -4 -4 -4 -5 -5 -5 -5 -4 -4 -4 -5 -5 -4 -2 2 4 4 4 4 4 4 5 5 5 5 6 6 7 7 8 8 7 6 7 7 7 8 8 7 8
-4 -5 -4 -4 -4 -4 -4 -4 -5 -5 -7 -8 -7 -6 -4 -5 -7 -6 -5 -4 -2 0 3 3 4 4 5 5 5 5 5 6 6 6 7 7 8 7 6 6 6 7 7 7 7 7 7
-4 -4 -4 -5 -5 -6 -7 -6 -7 -7 -8 -8 -8 -8 -5 -6 -8 -7 -6 -5 -2 -1 2 3 3 5 5 6 5 5 6 6 6 6 6 7 7 7 6 6 7 6 6 7 8 8 7
-5 -5 -5 -6 -7 -6 -7 -7 -7 -7 -8 -7 -8 -8 -8 -7 -7 -7 -7 -3 -1 -1 -0 1 2 3 5 5 5 5 6 6 5 6 5 6 6 7 6 6 7 7 7 7 7 8 8
-4 -5 -5 -6 -7 -7 -7 -7 -7 -7 -7 -7 -8 -9 -8 -8 -7 -7 -5 -4 -3 -2 -1 0 1 2 4 4 4 4 5 5 4 4 4 6 6 6 7 6 6 6 7 7 7 7 7
-6 -6 -6 -6 -6 -7 -7 -7 -7 -7 -7 -7 -8 -8 -8 -8 -6 -7 -7 -4 -4 -3 -2 -1 -1 1 2 3 3 4 5 4 4 4 5 5 6 6 7 7 7 6 7 7 7 7 7
-6 -6 -6 -6 -7 -7 -7 -7 -7 -7 -7 -7 -8 -8 -7 -7 -7 -6 -6 -5 -4 -3 -3 -1 -1 -3 2 3 3 3 3 3 3 4 4 4 5 6 6 7 7 7 7 7 7 7 7
-7 -7 -7 -7 -7 -7 -7 -8 -7 -7 -7 -8 -8 -8 -8 -7 -6 -7 -6 -5 -4 -3 -2 -2 -1 0 -0 2 3 3 3 3 3 4 4 4 5 5 6 6 7 7 7 7 8 7 7
-7 -8 -8 -9 -9 -8 -8 -8 -8 -8 -8 -8 -8 -7 -7 -7 -7 -7 -6 -5 -4 -2 -2 -2 -1 -0 -1 0 1 1 1 3 1 2 3 3 4 5 5 6 6 6 6 7 7 7 7
-8 -9 -9 -9 -8 -8 -8 -9 -8 -8 -8 -8 -7 -7 -7 -7 -7 -6 -6 -5 -5 -3 -2 -2 -1 -0 -0 -1 -1 -0 1 1 1 2 1 2 3 4 5 5 4 6 6 6 6 7 7
-9 -9 -9 -9 -9 -8 -8 -9 -8 -7 -8 -8 -7 -8 -7 -7 -6 -6 -6 -5 -5 -3 -3 -2 -1 -1 -1 -1 -2 -2 -1 -3 -0 1 -0 1 2 3 3 4 5 6 6 6 6 7 7
-9 -8 -9 -9 -9 -9 -8 -8 -8 -8 -8 -8 -8 -8 -8 -7 -6 -6 -6 -5 -5 -4 -4 -4 -2 -2 -3 -2 -2 -1 1 0 1 -0 -1 1 1 2 3 4 4 5 6 6 6 6 7
-9 -9 -9 -9 -9 -9 -9 -8 -8 -8 -8 -8 -8 -8 -8 -7 -7 -6 -6 -6 -5 -5 -5 -3 -4 -3 -2 -2 -3 -1 0 2 2 0 -1 -0 0 1 2 3 5 6 6 6 5 6 7
-9 -9 -9 -9 -8 -9 -8 -9 -9 -9 -9 -8 -7 -8 -8 -7 -7 -6 -6 -6 -6 -5 -5 -4 -3 -4 -4 -3 -2 -0 0 1 2 2 1 -0 0 0 1 3 3 5 5 5 6 6 5
-9 -8 -9 -9 -9 -9 -9 -9 -9 -9 -9 -8 -8 -8 -8 -8 -7 -6 -6 -6 -6 -6 -5 -4 -3 -3 -3 -3 -1 -0 0 0 1 2 2 1 0 2 3 4 4 5 5 5 6 6 5